| State | Michigan | Latest | Flood (5270 cfs) | |
| River | Manistique River | Rating | Observed | Estimated |
| Updated | 2026-05-05 12:45 (1 hour ago) | Flood - The river is flooding. Obstacles can be treacherous or deadly. The river should be avoided at this stage for casual trips and definitely for the inexperienced. Trips should be attempted only with protective gear and equipment.Flood | (none) | 3996 |
| Discharge | 5270 cfs (median: 2870 cfs) | High - The river is high and potentially dangerous, especially for the young and / or inexperienced. Normal stream obstacles are sometimes difficult to navigate. Extended distances can be attempted, but canoe travel may not be advisable.High | (none) | 2873 |
| Height | 9.92 feet | Good - Conditions are ideal for a canoe or kayak. Boats typically will drag on fewer than one-quarter of riffles, if at all, and portages are unnecessary or rare. Normal float lengths can be attempted without a problem.Good | (none) | 2067 |
| Trend | Falling (falling over 24 hours) | Low - River is low but can still be floated. Some riffles are okay but most come with significant dragging and might need a portage. Float lengths should be reduced to accommodate low flow, dragging, and portages.Low | (none) | 1133 |
| USGS | USGS Site ( Duck Duck Go Maps) | Poor - River is too low to float comfortably. Most or all riffles will drag or must be portaged and some obstacles (such as slick shelf rock) cause undue problems. Avoid the river at this stage for casual paddling trips.Poor | (none) | 589 |
A total of 1 rows are displayed.
| Miles | 6 |
| Trips | 1 |
| People | 9 |
| Dates | 1 |
| Years | 1 |
| Months | 1 |
| Rows | 1 |
| Sources | 1 |
BLG - Bluegill
CCF - Channel Catfish
CP - Chain Pickerel
FWD - Freshwater Drum
GSF - Green Sunfish
KSB - Kentucky Spotted Bass
LMB - Largemouth Bass
LSF - Longear Sunfish
RB - Rock Bass / Goggle Eye
RSF - Redear Sunfish
RT - Rainbow Trout
SMB - Smallmouth Bass
WB - White Bass
WF - Whitefish
WL - WalleyeThe classic River Trips application is still available for use. It is updated with the new system using a data retrofit. It is no longer maintained. The original River Trips application is no longer updated (as of 1 Dec 2016) but can be checked for errors or for the condition of the data before it was converted to the new system.
| Observation | Height | Discharge | Maximum Discharge | Minimum Discharge | Mean Discharge | P05 | P10 | P20 | P25 | P50 (Median) | P75 | P80 | P90 | P95 |
|---|---|---|---|---|---|---|---|---|---|---|---|---|---|---|
| 2026-05-05 12:45 | 9.92 | 5270 | 8150 (1972) | 588 (2010) | 3190 | 1040 | 1290 | 1700 | 1840 | 2870 | 4060 | 4470 | 5740 | 6770 |
| 2026-05-05 11:45 | 9.97 | 5380 | 8150 (1972) | 588 (2010) | 3190 | 1040 | 1290 | 1700 | 1840 | 2870 | 4060 | 4470 | 5740 | 6770 |
| 2026-05-05 10:45 | 9.97 | 5380 | 8150 (1972) | 588 (2010) | 3190 | 1040 | 1290 | 1700 | 1840 | 2870 | 4060 | 4470 | 5740 | 6770 |
| 2026-05-05 09:45 | 1 | 5450 | 8150 (1972) | 588 (2010) | 3190 | 1040 | 1290 | 1700 | 1840 | 2870 | 4060 | 4470 | 5740 | 6770 |
| 2026-05-05 06:45 | 10.02 | 5490 | 8150 (1972) | 588 (2010) | 3190 | 1040 | 1290 | 1700 | 1840 | 2870 | 4060 | 4470 | 5740 | 6770 |
| 2026-05-05 05:45 | 10.03 | 5510 | 8150 (1972) | 588 (2010) | 3190 | 1040 | 1290 | 1700 | 1840 | 2870 | 4060 | 4470 | 5740 | 6770 |
| 2026-05-05 04:45 | 10.06 | 5580 | 8150 (1972) | 588 (2010) | 3190 | 1040 | 1290 | 1700 | 1840 | 2870 | 4060 | 4470 | 5740 | 6770 |
| 2026-05-05 03:45 | 10.06 | 5580 | 8150 (1972) | 588 (2010) | 3190 | 1040 | 1290 | 1700 | 1840 | 2870 | 4060 | 4470 | 5740 | 6770 |
| 2026-05-05 00:45 | 10.08 | 5620 | 8150 (1972) | 588 (2010) | 3190 | 1040 | 1290 | 1700 | 1840 | 2870 | 4060 | 4470 | 5740 | 6770 |
| 2026-05-04 23:45 | 10.12 | 5710 | 8150 (1972) | 588 (2010) | 3190 | 1040 | 1290 | 1700 | 1840 | 2870 | 4060 | 4470 | 5740 | 6770 |
| 2026-05-04 22:45 | 10.11 | 5690 | 8750 (1972) | 593 (2010) | 3310 | 1090 | 1330 | 1740 | 1910 | 2990 | 4210 | 4660 | 6280 | 6800 |
| 2026-05-04 21:45 | 10.12 | 5710 | 8750 (1972) | 593 (2010) | 3310 | 1090 | 1330 | 1740 | 1910 | 2990 | 4210 | 4660 | 6280 | 6800 |
| 2026-05-04 20:45 | 10.11 | 5690 | 8750 (1972) | 593 (2010) | 3310 | 1090 | 1330 | 1740 | 1910 | 2990 | 4210 | 4660 | 6280 | 6800 |
| 2026-05-04 19:45 | 10.14 | 5760 | 8750 (1972) | 593 (2010) | 3310 | 1090 | 1330 | 1740 | 1910 | 2990 | 4210 | 4660 | 6280 | 6800 |
| 2026-05-04 18:45 | 10.15 | 5790 | 8750 (1972) | 593 (2010) | 3310 | 1090 | 1330 | 1740 | 1910 | 2990 | 4210 | 4660 | 6280 | 6800 |
| 2026-05-04 17:45 | 10.13 | 5740 | 8750 (1972) | 593 (2010) | 3310 | 1090 | 1330 | 1740 | 1910 | 2990 | 4210 | 4660 | 6280 | 6800 |
| 2026-05-04 16:45 | 10.18 | 5860 | 8750 (1972) | 593 (2010) | 3310 | 1090 | 1330 | 1740 | 1910 | 2990 | 4210 | 4660 | 6280 | 6800 |
| 2026-05-04 15:45 | 10.18 | 5860 | 8750 (1972) | 593 (2010) | 3310 | 1090 | 1330 | 1740 | 1910 | 2990 | 4210 | 4660 | 6280 | 6800 |
| 2026-05-04 14:45 | 10.18 | 5860 | 8750 (1972) | 593 (2010) | 3310 | 1090 | 1330 | 1740 | 1910 | 2990 | 4210 | 4660 | 6280 | 6800 |
| 2026-05-04 13:45 | 10.20 | 5910 | 8750 (1972) | 593 (2010) | 3310 | 1090 | 1330 | 1740 | 1910 | 2990 | 4210 | 4660 | 6280 | 6800 |
| 2026-05-04 12:45 | 10.20 | 5910 | 8750 (1972) | 593 (2010) | 3310 | 1090 | 1330 | 1740 | 1910 | 2990 | 4210 | 4660 | 6280 | 6800 |
| 2026-05-04 11:45 | 10.19 | 5880 | 8750 (1972) | 593 (2010) | 3310 | 1090 | 1330 | 1740 | 1910 | 2990 | 4210 | 4660 | 6280 | 6800 |
| 2026-05-04 10:45 | 10.25 | 6030 | 8750 (1972) | 593 (2010) | 3310 | 1090 | 1330 | 1740 | 1910 | 2990 | 4210 | 4660 | 6280 | 6800 |
| 2026-05-04 09:45 | 10.23 | 5980 | 8750 (1972) | 593 (2010) | 3310 | 1090 | 1330 | 1740 | 1910 | 2990 | 4210 | 4660 | 6280 | 6800 |
| 2026-05-04 08:45 | 10.26 | 6060 | 8750 (1972) | 593 (2010) | 3310 | 1090 | 1330 | 1740 | 1910 | 2990 | 4210 | 4660 | 6280 | 6800 |
| 2026-05-04 06:45 | 10.25 | 6030 | 8750 (1972) | 593 (2010) | 3310 | 1090 | 1330 | 1740 | 1910 | 2990 | 4210 | 4660 | 6280 | 6800 |
| 2026-05-04 05:45 | 10.27 | 6080 | 8750 (1972) | 593 (2010) | 3310 | 1090 | 1330 | 1740 | 1910 | 2990 | 4210 | 4660 | 6280 | 6800 |
| 2026-05-04 04:45 | 10.28 | 6110 | 8750 (1972) | 593 (2010) | 3310 | 1090 | 1330 | 1740 | 1910 | 2990 | 4210 | 4660 | 6280 | 6800 |
| 2026-05-04 03:45 | 10.29 | 6130 | 8750 (1972) | 593 (2010) | 3310 | 1090 | 1330 | 1740 | 1910 | 2990 | 4210 | 4660 | 6280 | 6800 |
| 2026-05-04 02:45 | 10.29 | 6130 | 8750 (1972) | 593 (2010) | 3310 | 1090 | 1330 | 1740 | 1910 | 2990 | 4210 | 4660 | 6280 | 6800 |
| 2026-05-04 01:45 | 10.32 | 6210 | 8750 (1972) | 593 (2010) | 3310 | 1090 | 1330 | 1740 | 1910 | 2990 | 4210 | 4660 | 6280 | 6800 |
| 2026-05-04 00:45 | 10.35 | 6290 | 8750 (1972) | 593 (2010) | 3310 | 1090 | 1330 | 1740 | 1910 | 2990 | 4210 | 4660 | 6280 | 6800 |
| 2026-05-03 23:45 | 10.34 | 6260 | 8750 (1972) | 593 (2010) | 3310 | 1090 | 1330 | 1740 | 1910 | 2990 | 4210 | 4660 | 6280 | 6800 |
| 2026-05-03 22:45 | 10.37 | 6340 | 9190 (1972) | 610 (2010) | 3400 | 1150 | 1340 | 1870 | 2060 | 3200 | 4510 | 4790 | 6220 | 7070 |
| 2026-05-03 21:45 | 10.38 | 6370 | 9190 (1972) | 610 (2010) | 3400 | 1150 | 1340 | 1870 | 2060 | 3200 | 4510 | 4790 | 6220 | 7070 |
| 2026-05-03 20:45 | 10.36 | 6310 | 9190 (1972) | 610 (2010) | 3400 | 1150 | 1340 | 1870 | 2060 | 3200 | 4510 | 4790 | 6220 | 7070 |
| 2026-05-03 19:45 | 10.36 | 6310 | 9190 (1972) | 610 (2010) | 3400 | 1150 | 1340 | 1870 | 2060 | 3200 | 4510 | 4790 | 6220 | 7070 |
| 2026-05-03 18:45 | 10.39 | 6390 | 9190 (1972) | 610 (2010) | 3400 | 1150 | 1340 | 1870 | 2060 | 3200 | 4510 | 4790 | 6220 | 7070 |
| 2026-05-03 17:45 | 10.41 | 6440 | 9190 (1972) | 610 (2010) | 3400 | 1150 | 1340 | 1870 | 2060 | 3200 | 4510 | 4790 | 6220 | 7070 |
| 2026-05-03 16:45 | 10.43 | 6500 | 9190 (1972) | 610 (2010) | 3400 | 1150 | 1340 | 1870 | 2060 | 3200 | 4510 | 4790 | 6220 | 7070 |
| 2026-05-03 15:45 | 10.39 | 6390 | 9190 (1972) | 610 (2010) | 3400 | 1150 | 1340 | 1870 | 2060 | 3200 | 4510 | 4790 | 6220 | 7070 |
| 2026-05-03 14:45 | 10.43 | 6500 | 9190 (1972) | 610 (2010) | 3400 | 1150 | 1340 | 1870 | 2060 | 3200 | 4510 | 4790 | 6220 | 7070 |
| 2026-05-03 13:45 | 10.43 | 6500 | 9190 (1972) | 610 (2010) | 3400 | 1150 | 1340 | 1870 | 2060 | 3200 | 4510 | 4790 | 6220 | 7070 |
| 2026-05-03 12:45 | 10.45 | 6550 | 9190 (1972) | 610 (2010) | 3400 | 1150 | 1340 | 1870 | 2060 | 3200 | 4510 | 4790 | 6220 | 7070 |
| 2026-05-03 11:45 | 10.43 | 6500 | 9190 (1972) | 610 (2010) | 3400 | 1150 | 1340 | 1870 | 2060 | 3200 | 4510 | 4790 | 6220 | 7070 |
| 2026-05-03 10:45 | 10.42 | 6470 | 9190 (1972) | 610 (2010) | 3400 | 1150 | 1340 | 1870 | 2060 | 3200 | 4510 | 4790 | 6220 | 7070 |
| 2026-05-03 09:45 | 10.45 | 6550 | 9190 (1972) | 610 (2010) | 3400 | 1150 | 1340 | 1870 | 2060 | 3200 | 4510 | 4790 | 6220 | 7070 |
| 2026-05-03 08:45 | 10.47 | 6600 | 9190 (1972) | 610 (2010) | 3400 | 1150 | 1340 | 1870 | 2060 | 3200 | 4510 | 4790 | 6220 | 7070 |
| 2026-05-03 07:45 | 10.47 | 6600 | 9190 (1972) | 610 (2010) | 3400 | 1150 | 1340 | 1870 | 2060 | 3200 | 4510 | 4790 | 6220 | 7070 |
| 2026-05-03 06:45 | 10.46 | 6580 | 9190 (1972) | 610 (2010) | 3400 | 1150 | 1340 | 1870 | 2060 | 3200 | 4510 | 4790 | 6220 | 7070 |
| 2026-05-03 05:45 | 10.48 | 6630 | 9190 (1972) | 610 (2010) | 3400 | 1150 | 1340 | 1870 | 2060 | 3200 | 4510 | 4790 | 6220 | 7070 |
| 2026-05-03 04:45 | 10.52 | 6740 | 9190 (1972) | 610 (2010) | 3400 | 1150 | 1340 | 1870 | 2060 | 3200 | 4510 | 4790 | 6220 | 7070 |
| 2026-05-03 03:45 | 10.52 | 6740 | 9190 (1972) | 610 (2010) | 3400 | 1150 | 1340 | 1870 | 2060 | 3200 | 4510 | 4790 | 6220 | 7070 |
| 2026-05-03 02:45 | 10.50 | 6680 | 9190 (1972) | 610 (2010) | 3400 | 1150 | 1340 | 1870 | 2060 | 3200 | 4510 | 4790 | 6220 | 7070 |
| 2026-05-03 01:45 | 10.50 | 6680 | 9190 (1972) | 610 (2010) | 3400 | 1150 | 1340 | 1870 | 2060 | 3200 | 4510 | 4790 | 6220 | 7070 |
| 2026-05-03 00:45 | 10.53 | 6760 | 9190 (1972) | 610 (2010) | 3400 | 1150 | 1340 | 1870 | 2060 | 3200 | 4510 | 4790 | 6220 | 7070 |
| 2026-05-02 23:45 | 10.50 | 6680 | 9190 (1972) | 610 (2010) | 3400 | 1150 | 1340 | 1870 | 2060 | 3200 | 4510 | 4790 | 6220 | 7070 |
| 2026-05-02 22:45 | 10.58 | 6890 | 9440 (1972) | 621 (2010) | 3530 | 1190 | 1350 | 2000 | 2090 | 3270 | 4710 | 4910 | 6500 | 7340 |
| 2026-05-02 21:45 | 10.55 | 6810 | 9440 (1972) | 621 (2010) | 3530 | 1190 | 1350 | 2000 | 2090 | 3270 | 4710 | 4910 | 6500 | 7340 |
| 2026-05-02 20:45 | 10.56 | 6840 | 9440 (1972) | 621 (2010) | 3530 | 1190 | 1350 | 2000 | 2090 | 3270 | 4710 | 4910 | 6500 | 7340 |
| 2026-05-02 18:45 | 10.59 | 6920 | 9440 (1972) | 621 (2010) | 3530 | 1190 | 1350 | 2000 | 2090 | 3270 | 4710 | 4910 | 6500 | 7340 |
| 2026-05-02 17:45 | 10.57 | 6860 | 9440 (1972) | 621 (2010) | 3530 | 1190 | 1350 | 2000 | 2090 | 3270 | 4710 | 4910 | 6500 | 7340 |
| 2026-05-02 16:45 | 10.57 | 6860 | 9440 (1972) | 621 (2010) | 3530 | 1190 | 1350 | 2000 | 2090 | 3270 | 4710 | 4910 | 6500 | 7340 |
| 2026-05-02 15:45 | 10.56 | 6840 | 9440 (1972) | 621 (2010) | 3530 | 1190 | 1350 | 2000 | 2090 | 3270 | 4710 | 4910 | 6500 | 7340 |
| 2026-05-02 14:45 | 10.59 | 6920 | 9440 (1972) | 621 (2010) | 3530 | 1190 | 1350 | 2000 | 2090 | 3270 | 4710 | 4910 | 6500 | 7340 |
| 2026-05-02 13:45 | 10.59 | 6920 | 9440 (1972) | 621 (2010) | 3530 | 1190 | 1350 | 2000 | 2090 | 3270 | 4710 | 4910 | 6500 | 7340 |
| 2026-05-02 12:45 | 10.59 | 6920 | 9440 (1972) | 621 (2010) | 3530 | 1190 | 1350 | 2000 | 2090 | 3270 | 4710 | 4910 | 6500 | 7340 |
| 2026-05-02 11:45 | 10.61 | 6970 | 9440 (1972) | 621 (2010) | 3530 | 1190 | 1350 | 2000 | 2090 | 3270 | 4710 | 4910 | 6500 | 7340 |
| 2026-05-02 10:45 | 10.63 | 7020 | 9440 (1972) | 621 (2010) | 3530 | 1190 | 1350 | 2000 | 2090 | 3270 | 4710 | 4910 | 6500 | 7340 |
| 2026-05-02 09:45 | 10.65 | 7070 | 9440 (1972) | 621 (2010) | 3530 | 1190 | 1350 | 2000 | 2090 | 3270 | 4710 | 4910 | 6500 | 7340 |
| 2026-05-02 08:45 | 10.63 | 7020 | 9440 (1972) | 621 (2010) | 3530 | 1190 | 1350 | 2000 | 2090 | 3270 | 4710 | 4910 | 6500 | 7340 |
| 2026-05-02 07:45 | 10.60 | 6940 | 9440 (1972) | 621 (2010) | 3530 | 1190 | 1350 | 2000 | 2090 | 3270 | 4710 | 4910 | 6500 | 7340 |
| 2026-05-02 06:45 | 10.66 | 7100 | 9440 (1972) | 621 (2010) | 3530 | 1190 | 1350 | 2000 | 2090 | 3270 | 4710 | 4910 | 6500 | 7340 |
| 2026-05-02 05:45 | 10.63 | 7020 | 9440 (1972) | 621 (2010) | 3530 | 1190 | 1350 | 2000 | 2090 | 3270 | 4710 | 4910 | 6500 | 7340 |
| 2026-05-02 04:45 | 10.65 | 7070 | 9440 (1972) | 621 (2010) | 3530 | 1190 | 1350 | 2000 | 2090 | 3270 | 4710 | 4910 | 6500 | 7340 |
| 2026-05-02 03:45 | 10.67 | 7130 | 9440 (1972) | 621 (2010) | 3530 | 1190 | 1350 | 2000 | 2090 | 3270 | 4710 | 4910 | 6500 | 7340 |
| 2026-05-02 02:45 | 10.67 | 7130 | 9440 (1972) | 621 (2010) | 3530 | 1190 | 1350 | 2000 | 2090 | 3270 | 4710 | 4910 | 6500 | 7340 |
| 2026-05-02 01:45 | 10.75 | 7340 | 9440 (1972) | 621 (2010) | 3530 | 1190 | 1350 | 2000 | 2090 | 3270 | 4710 | 4910 | 6500 | 7340 |
| 2026-05-02 00:45 | 10.67 | 7130 | 9440 (1972) | 621 (2010) | 3530 | 1190 | 1350 | 2000 | 2090 | 3270 | 4710 | 4910 | 6500 | 7340 |
| 2026-05-01 23:45 | 10.65 | 7070 | 9440 (1972) | 621 (2010) | 3530 | 1190 | 1350 | 2000 | 2090 | 3270 | 4710 | 4910 | 6500 | 7340 |
| 2026-05-01 22:45 | 10.70 | 7210 | 9670 (1939) | 625 (2010) | 3680 | 1210 | 1390 | 2110 | 2260 | 3300 | 4890 | 5260 | 6930 | 7410 |
| 2026-05-01 21:45 | 10.75 | 7340 | 9670 (1939) | 625 (2010) | 3680 | 1210 | 1390 | 2110 | 2260 | 3300 | 4890 | 5260 | 6930 | 7410 |
| 2026-05-01 19:45 | 10.68 | 7150 | 9670 (1939) | 625 (2010) | 3680 | 1210 | 1390 | 2110 | 2260 | 3300 | 4890 | 5260 | 6930 | 7410 |
| 2026-05-01 18:45 | 10.68 | 7150 | 9670 (1939) | 625 (2010) | 3680 | 1210 | 1390 | 2110 | 2260 | 3300 | 4890 | 5260 | 6930 | 7410 |
| 2026-05-01 17:45 | 10.73 | 7290 | 9670 (1939) | 625 (2010) | 3680 | 1210 | 1390 | 2110 | 2260 | 3300 | 4890 | 5260 | 6930 | 7410 |
| 2026-05-01 16:45 | 10.72 | 7260 | 9670 (1939) | 625 (2010) | 3680 | 1210 | 1390 | 2110 | 2260 | 3300 | 4890 | 5260 | 6930 | 7410 |
| 2026-05-01 15:45 | 10.72 | 7260 | 9670 (1939) | 625 (2010) | 3680 | 1210 | 1390 | 2110 | 2260 | 3300 | 4890 | 5260 | 6930 | 7410 |
| 2026-05-01 14:45 | 10.73 | 7290 | 9670 (1939) | 625 (2010) | 3680 | 1210 | 1390 | 2110 | 2260 | 3300 | 4890 | 5260 | 6930 | 7410 |
| 2026-05-01 13:45 | 10.72 | 7260 | 9670 (1939) | 625 (2010) | 3680 | 1210 | 1390 | 2110 | 2260 | 3300 | 4890 | 5260 | 6930 | 7410 |
| 2026-05-01 12:45 | 10.75 | 7340 | 9670 (1939) | 625 (2010) | 3680 | 1210 | 1390 | 2110 | 2260 | 3300 | 4890 | 5260 | 6930 | 7410 |
| 2026-05-01 11:45 | 10.75 | 7340 | 9670 (1939) | 625 (2010) | 3680 | 1210 | 1390 | 2110 | 2260 | 3300 | 4890 | 5260 | 6930 | 7410 |
| 2026-05-01 10:45 | 10.72 | 7260 | 9670 (1939) | 625 (2010) | 3680 | 1210 | 1390 | 2110 | 2260 | 3300 | 4890 | 5260 | 6930 | 7410 |
| 2026-05-01 09:45 | 10.73 | 7290 | 9670 (1939) | 625 (2010) | 3680 | 1210 | 1390 | 2110 | 2260 | 3300 | 4890 | 5260 | 6930 | 7410 |
| 2026-05-01 07:45 | 10.75 | 7340 | 9670 (1939) | 625 (2010) | 3680 | 1210 | 1390 | 2110 | 2260 | 3300 | 4890 | 5260 | 6930 | 7410 |
| 2026-05-01 06:45 | 10.73 | 7290 | 9670 (1939) | 625 (2010) | 3680 | 1210 | 1390 | 2110 | 2260 | 3300 | 4890 | 5260 | 6930 | 7410 |
| 2026-05-01 05:45 | 10.72 | 7260 | 9670 (1939) | 625 (2010) | 3680 | 1210 | 1390 | 2110 | 2260 | 3300 | 4890 | 5260 | 6930 | 7410 |
| 2026-05-01 04:45 | 10.80 | 7480 | 9670 (1939) | 625 (2010) | 3680 | 1210 | 1390 | 2110 | 2260 | 3300 | 4890 | 5260 | 6930 | 7410 |
| 2026-05-01 03:45 | 10.73 | 7290 | 9670 (1939) | 625 (2010) | 3680 | 1210 | 1390 | 2110 | 2260 | 3300 | 4890 | 5260 | 6930 | 7410 |
| 2026-05-01 02:45 | 10.72 | 7260 | 9670 (1939) | 625 (2010) | 3680 | 1210 | 1390 | 2110 | 2260 | 3300 | 4890 | 5260 | 6930 | 7410 |
| 2026-05-01 01:45 | 10.77 | 7400 | 9670 (1939) | 625 (2010) | 3680 | 1210 | 1390 | 2110 | 2260 | 3300 | 4890 | 5260 | 6930 | 7410 |
| 2026-05-01 00:45 | 10.75 | 7340 | 9670 (1939) | 625 (2010) | 3680 | 1210 | 1390 | 2110 | 2260 | 3300 | 4890 | 5260 | 6930 | 7410 |
| 2026-04-30 23:45 | 10.78 | 7420 | 9670 (1939) | 625 (2010) | 3680 | 1210 | 1390 | 2110 | 2260 | 3300 | 4890 | 5260 | 6930 | 7410 |
| 2026-04-30 22:45 | 10.72 | 7260 | 11400 (1939) | 627 (2010) | 3860 | 1260 | 1500 | 2200 | 2320 | 3450 | 5100 | 5570 | 6820 | 7820 |
| 2026-04-30 21:45 | 10.72 | 7260 | 11400 (1939) | 627 (2010) | 3860 | 1260 | 1500 | 2200 | 2320 | 3450 | 5100 | 5570 | 6820 | 7820 |
| 2026-04-30 19:45 | 10.76 | 7370 | 11400 (1939) | 627 (2010) | 3860 | 1260 | 1500 | 2200 | 2320 | 3450 | 5100 | 5570 | 6820 | 7820 |
| 2026-04-30 18:45 | 10.76 | 7370 | 11400 (1939) | 627 (2010) | 3860 | 1260 | 1500 | 2200 | 2320 | 3450 | 5100 | 5570 | 6820 | 7820 |
| 2026-04-30 17:45 | 10.75 | 7340 | 11400 (1939) | 627 (2010) | 3860 | 1260 | 1500 | 2200 | 2320 | 3450 | 5100 | 5570 | 6820 | 7820 |
| 2026-04-30 16:45 | 10.75 | 7340 | 11400 (1939) | 627 (2010) | 3860 | 1260 | 1500 | 2200 | 2320 | 3450 | 5100 | 5570 | 6820 | 7820 |
| 2026-04-30 15:45 | 10.74 | 7310 | 11400 (1939) | 627 (2010) | 3860 | 1260 | 1500 | 2200 | 2320 | 3450 | 5100 | 5570 | 6820 | 7820 |
| 2026-04-30 14:45 | 10.75 | 7340 | 11400 (1939) | 627 (2010) | 3860 | 1260 | 1500 | 2200 | 2320 | 3450 | 5100 | 5570 | 6820 | 7820 |
| 2026-04-30 13:45 | 10.77 | 7400 | 11400 (1939) | 627 (2010) | 3860 | 1260 | 1500 | 2200 | 2320 | 3450 | 5100 | 5570 | 6820 | 7820 |
| 2026-04-30 12:45 | 10.75 | 7340 | 11400 (1939) | 627 (2010) | 3860 | 1260 | 1500 | 2200 | 2320 | 3450 | 5100 | 5570 | 6820 | 7820 |
| 2026-04-30 11:45 | 10.76 | 7370 | 11400 (1939) | 627 (2010) | 3860 | 1260 | 1500 | 2200 | 2320 | 3450 | 5100 | 5570 | 6820 | 7820 |
| 2026-04-30 10:45 | 10.75 | 7340 | 11400 (1939) | 627 (2010) | 3860 | 1260 | 1500 | 2200 | 2320 | 3450 | 5100 | 5570 | 6820 | 7820 |
| 2026-04-30 09:45 | 10.73 | 7290 | 11400 (1939) | 627 (2010) | 3860 | 1260 | 1500 | 2200 | 2320 | 3450 | 5100 | 5570 | 6820 | 7820 |
| 2026-04-30 06:45 | 10.75 | 7340 | 11400 (1939) | 627 (2010) | 3860 | 1260 | 1500 | 2200 | 2320 | 3450 | 5100 | 5570 | 6820 | 7820 |
| 2026-04-30 05:45 | 10.77 | 7400 | 11400 (1939) | 627 (2010) | 3860 | 1260 | 1500 | 2200 | 2320 | 3450 | 5100 | 5570 | 6820 | 7820 |
| 2026-04-30 01:45 | 10.76 | 7370 | 11400 (1939) | 627 (2010) | 3860 | 1260 | 1500 | 2200 | 2320 | 3450 | 5100 | 5570 | 6820 | 7820 |
| 2026-04-30 00:45 | 10.73 | 7290 | 11400 (1939) | 627 (2010) | 3860 | 1260 | 1500 | 2200 | 2320 | 3450 | 5100 | 5570 | 6820 | 7820 |
| 2026-04-29 23:45 | 10.76 | 7370 | 11400 (1939) | 627 (2010) | 3860 | 1260 | 1500 | 2200 | 2320 | 3450 | 5100 | 5570 | 6820 | 7820 |
| 2026-04-29 22:45 | 10.77 | 7400 | 13800 (1939) | 642 (2010) | 4050 | 1290 | 1630 | 2200 | 2460 | 3660 | 5120 | 5660 | 7120 | 8430 |
| 2026-04-29 21:45 | 10.76 | 7370 | 13800 (1939) | 642 (2010) | 4050 | 1290 | 1630 | 2200 | 2460 | 3660 | 5120 | 5660 | 7120 | 8430 |
| 2026-04-29 20:45 | 10.76 | 7370 | 13800 (1939) | 642 (2010) | 4050 | 1290 | 1630 | 2200 | 2460 | 3660 | 5120 | 5660 | 7120 | 8430 |
| 2026-04-29 19:45 | 10.80 | 7480 | 13800 (1939) | 642 (2010) | 4050 | 1290 | 1630 | 2200 | 2460 | 3660 | 5120 | 5660 | 7120 | 8430 |
| 2026-04-29 18:45 | 10.78 | 7420 | 13800 (1939) | 642 (2010) | 4050 | 1290 | 1630 | 2200 | 2460 | 3660 | 5120 | 5660 | 7120 | 8430 |
| 2026-04-29 17:45 | 10.79 | 7450 | 13800 (1939) | 642 (2010) | 4050 | 1290 | 1630 | 2200 | 2460 | 3660 | 5120 | 5660 | 7120 | 8430 |
| 2026-04-29 16:45 | 10.78 | 7420 | 13800 (1939) | 642 (2010) | 4050 | 1290 | 1630 | 2200 | 2460 | 3660 | 5120 | 5660 | 7120 | 8430 |
| 2026-04-29 15:45 | 10.78 | 7420 | 13800 (1939) | 642 (2010) | 4050 | 1290 | 1630 | 2200 | 2460 | 3660 | 5120 | 5660 | 7120 | 8430 |
| 2026-04-29 14:45 | 10.80 | 7480 | 13800 (1939) | 642 (2010) | 4050 | 1290 | 1630 | 2200 | 2460 | 3660 | 5120 | 5660 | 7120 | 8430 |
| 2026-04-29 13:45 | 10.77 | 7400 | 13800 (1939) | 642 (2010) | 4050 | 1290 | 1630 | 2200 | 2460 | 3660 | 5120 | 5660 | 7120 | 8430 |
| 2026-04-29 12:45 | 10.75 | 7340 | 13800 (1939) | 642 (2010) | 4050 | 1290 | 1630 | 2200 | 2460 | 3660 | 5120 | 5660 | 7120 | 8430 |
| 2026-04-29 11:45 | 10.83 | 7560 | 13800 (1939) | 642 (2010) | 4050 | 1290 | 1630 | 2200 | 2460 | 3660 | 5120 | 5660 | 7120 | 8430 |
| 2026-04-29 10:45 | 10.80 | 7480 | 13800 (1939) | 642 (2010) | 4050 | 1290 | 1630 | 2200 | 2460 | 3660 | 5120 | 5660 | 7120 | 8430 |
| 2026-04-29 09:45 | 10.82 | 7530 | 13800 (1939) | 642 (2010) | 4050 | 1290 | 1630 | 2200 | 2460 | 3660 | 5120 | 5660 | 7120 | 8430 |
| 2026-04-29 08:45 | 10.80 | 7480 | 13800 (1939) | 642 (2010) | 4050 | 1290 | 1630 | 2200 | 2460 | 3660 | 5120 | 5660 | 7120 | 8430 |
| 2026-04-29 07:45 | 10.80 | 7480 | 13800 (1939) | 642 (2010) | 4050 | 1290 | 1630 | 2200 | 2460 | 3660 | 5120 | 5660 | 7120 | 8430 |
| 2026-04-29 06:45 | 10.81 | 7510 | 13800 (1939) | 642 (2010) | 4050 | 1290 | 1630 | 2200 | 2460 | 3660 | 5120 | 5660 | 7120 | 8430 |
| 2026-04-29 05:45 | 10.79 | 7450 | 13800 (1939) | 642 (2010) | 4050 | 1290 | 1630 | 2200 | 2460 | 3660 | 5120 | 5660 | 7120 | 8430 |
| 2026-04-29 04:45 | 10.84 | 7590 | 13800 (1939) | 642 (2010) | 4050 | 1290 | 1630 | 2200 | 2460 | 3660 | 5120 | 5660 | 7120 | 8430 |
| 2026-04-29 03:45 | 10.81 | 7510 | 13800 (1939) | 642 (2010) | 4050 | 1290 | 1630 | 2200 | 2460 | 3660 | 5120 | 5660 | 7120 | 8430 |
| 2026-04-29 02:45 | 10.83 | 7560 | 13800 (1939) | 642 (2010) | 4050 | 1290 | 1630 | 2200 | 2460 | 3660 | 5120 | 5660 | 7120 | 8430 |
| 2026-04-29 01:45 | 10.81 | 7510 | 13800 (1939) | 642 (2010) | 4050 | 1290 | 1630 | 2200 | 2460 | 3660 | 5120 | 5660 | 7120 | 8430 |
| 2026-04-29 00:45 | 10.84 | 7590 | 13800 (1939) | 642 (2010) | 4050 | 1290 | 1630 | 2200 | 2460 | 3660 | 5120 | 5660 | 7120 | 8430 |
| 2026-04-28 23:45 | 10.85 | 7620 | 13800 (1939) | 642 (2010) | 4050 | 1290 | 1630 | 2200 | 2460 | 3660 | 5120 | 5660 | 7120 | 8430 |
| 2026-04-28 22:45 | 10.84 | 7590 | 14400 (1939) | 662 (2010) | 4200 | 1340 | 1610 | 2300 | 2600 | 3690 | 5470 | 5810 | 7390 | 9050 |
| 2026-04-28 21:45 | 10.84 | 7590 | 14400 (1939) | 662 (2010) | 4200 | 1340 | 1610 | 2300 | 2600 | 3690 | 5470 | 5810 | 7390 | 9050 |
| 2026-04-28 20:45 | 10.85 | 7620 | 14400 (1939) | 662 (2010) | 4200 | 1340 | 1610 | 2300 | 2600 | 3690 | 5470 | 5810 | 7390 | 9050 |
| 2026-04-28 19:45 | 10.87 | 7670 | 14400 (1939) | 662 (2010) | 4200 | 1340 | 1610 | 2300 | 2600 | 3690 | 5470 | 5810 | 7390 | 9050 |
| 2026-04-28 18:45 | 10.87 | 7670 | 14400 (1939) | 662 (2010) | 4200 | 1340 | 1610 | 2300 | 2600 | 3690 | 5470 | 5810 | 7390 | 9050 |
| 2026-04-28 17:45 | 10.90 | 7760 | 14400 (1939) | 662 (2010) | 4200 | 1340 | 1610 | 2300 | 2600 | 3690 | 5470 | 5810 | 7390 | 9050 |
| 2026-04-28 16:45 | 10.87 | 7670 | 14400 (1939) | 662 (2010) | 4200 | 1340 | 1610 | 2300 | 2600 | 3690 | 5470 | 5810 | 7390 | 9050 |
| 2026-04-28 15:45 | 10.86 | 7650 | 14400 (1939) | 662 (2010) | 4200 | 1340 | 1610 | 2300 | 2600 | 3690 | 5470 | 5810 | 7390 | 9050 |
| 2026-04-28 14:45 | 10.86 | 7650 | 14400 (1939) | 662 (2010) | 4200 | 1340 | 1610 | 2300 | 2600 | 3690 | 5470 | 5810 | 7390 | 9050 |
| 2026-04-28 13:45 | 10.86 | 7650 | 14400 (1939) | 662 (2010) | 4200 | 1340 | 1610 | 2300 | 2600 | 3690 | 5470 | 5810 | 7390 | 9050 |
| 2026-04-28 12:45 | 10.91 | 7790 | 14400 (1939) | 662 (2010) | 4200 | 1340 | 1610 | 2300 | 2600 | 3690 | 5470 | 5810 | 7390 | 9050 |
| 2026-04-28 11:45 | 10.91 | 7790 | 14400 (1939) | 662 (2010) | 4200 | 1340 | 1610 | 2300 | 2600 | 3690 | 5470 | 5810 | 7390 | 9050 |
| 2026-04-28 10:45 | 10.88 | 7700 | 14400 (1939) | 662 (2010) | 4200 | 1340 | 1610 | 2300 | 2600 | 3690 | 5470 | 5810 | 7390 | 9050 |
| 2026-04-28 09:45 | 10.93 | 7840 | 14400 (1939) | 662 (2010) | 4200 | 1340 | 1610 | 2300 | 2600 | 3690 | 5470 | 5810 | 7390 | 9050 |
| 2026-04-28 08:45 | 10.94 | 7870 | 14400 (1939) | 662 (2010) | 4200 | 1340 | 1610 | 2300 | 2600 | 3690 | 5470 | 5810 | 7390 | 9050 |
| 2026-04-28 07:45 | 10.91 | 7790 | 14400 (1939) | 662 (2010) | 4200 | 1340 | 1610 | 2300 | 2600 | 3690 | 5470 | 5810 | 7390 | 9050 |
| 2026-04-28 06:45 | 10.93 | 7840 | 14400 (1939) | 662 (2010) | 4200 | 1340 | 1610 | 2300 | 2600 | 3690 | 5470 | 5810 | 7390 | 9050 |
| 2026-04-28 05:45 | 10.93 | 7840 | 14400 (1939) | 662 (2010) | 4200 | 1340 | 1610 | 2300 | 2600 | 3690 | 5470 | 5810 | 7390 | 9050 |
| 2026-04-28 04:45 | 10.91 | 7790 | 14400 (1939) | 662 (2010) | 4200 | 1340 | 1610 | 2300 | 2600 | 3690 | 5470 | 5810 | 7390 | 9050 |
| 2026-04-28 03:45 | 10.95 | 7900 | 14400 (1939) | 662 (2010) | 4200 | 1340 | 1610 | 2300 | 2600 | 3690 | 5470 | 5810 | 7390 | 9050 |
| 2026-04-28 01:45 | 10.96 | 7930 | 14400 (1939) | 662 (2010) | 4200 | 1340 | 1610 | 2300 | 2600 | 3690 | 5470 | 5810 | 7390 | 9050 |
| 2026-04-28 00:45 | 10.94 | 7870 | 14400 (1939) | 662 (2010) | 4200 | 1340 | 1610 | 2300 | 2600 | 3690 | 5470 | 5810 | 7390 | 9050 |
| 2026-04-27 23:45 | 10.99 | 8020 | 14400 (1939) | 662 (2010) | 4200 | 1340 | 1610 | 2300 | 2600 | 3690 | 5470 | 5810 | 7390 | 9050 |
| 2026-04-27 22:45 | 10.94 | 7870 | 14900 (1939) | 690 (2010) | 4340 | 1380 | 1690 | 2440 | 2730 | 3770 | 5480 | 5850 | 7390 | 9090 |
| 2026-04-27 21:45 | 10.95 | 7900 | 14900 (1939) | 690 (2010) | 4340 | 1380 | 1690 | 2440 | 2730 | 3770 | 5480 | 5850 | 7390 | 9090 |
| 2026-04-27 20:45 | 10.94 | 7870 | 14900 (1939) | 690 (2010) | 4340 | 1380 | 1690 | 2440 | 2730 | 3770 | 5480 | 5850 | 7390 | 9090 |
| 2026-04-27 19:45 | 10.97 | 7960 | 14900 (1939) | 690 (2010) | 4340 | 1380 | 1690 | 2440 | 2730 | 3770 | 5480 | 5850 | 7390 | 9090 |
| 2026-04-27 18:45 | 10.98 | 7990 | 14900 (1939) | 690 (2010) | 4340 | 1380 | 1690 | 2440 | 2730 | 3770 | 5480 | 5850 | 7390 | 9090 |
| 2026-04-27 17:45 | 10.94 | 7870 | 14900 (1939) | 690 (2010) | 4340 | 1380 | 1690 | 2440 | 2730 | 3770 | 5480 | 5850 | 7390 | 9090 |
| 2026-04-27 16:45 | 10.97 | 7960 | 14900 (1939) | 690 (2010) | 4340 | 1380 | 1690 | 2440 | 2730 | 3770 | 5480 | 5850 | 7390 | 9090 |
| 2026-04-27 15:45 | 10.96 | 7930 | 14900 (1939) | 690 (2010) | 4340 | 1380 | 1690 | 2440 | 2730 | 3770 | 5480 | 5850 | 7390 | 9090 |
| 2026-04-27 13:45 | 10.95 | 7900 | 14900 (1939) | 690 (2010) | 4340 | 1380 | 1690 | 2440 | 2730 | 3770 | 5480 | 5850 | 7390 | 9090 |
| 2026-04-27 12:45 | 10.96 | 7930 | 14900 (1939) | 690 (2010) | 4340 | 1380 | 1690 | 2440 | 2730 | 3770 | 5480 | 5850 | 7390 | 9090 |
| 2026-04-27 11:45 | 10.99 | 8020 | 14900 (1939) | 690 (2010) | 4340 | 1380 | 1690 | 2440 | 2730 | 3770 | 5480 | 5850 | 7390 | 9090 |
| 2026-04-27 10:45 | 11.01 | 8080 | 14900 (1939) | 690 (2010) | 4340 | 1380 | 1690 | 2440 | 2730 | 3770 | 5480 | 5850 | 7390 | 9090 |
| 2026-04-27 09:45 | 11.00 | 8050 | 14900 (1939) | 690 (2010) | 4340 | 1380 | 1690 | 2440 | 2730 | 3770 | 5480 | 5850 | 7390 | 9090 |
| 2026-04-27 08:45 | 11.00 | 8050 | 14900 (1939) | 690 (2010) | 4340 | 1380 | 1690 | 2440 | 2730 | 3770 | 5480 | 5850 | 7390 | 9090 |
| 2026-04-27 07:45 | 10.98 | 7990 | 14900 (1939) | 690 (2010) | 4340 | 1380 | 1690 | 2440 | 2730 | 3770 | 5480 | 5850 | 7390 | 9090 |
| 2026-04-27 06:45 | 11.00 | 8050 | 14900 (1939) | 690 (2010) | 4340 | 1380 | 1690 | 2440 | 2730 | 3770 | 5480 | 5850 | 7390 | 9090 |
| 2026-04-27 05:45 | 11.01 | 8080 | 14900 (1939) | 690 (2010) | 4340 | 1380 | 1690 | 2440 | 2730 | 3770 | 5480 | 5850 | 7390 | 9090 |
| 2026-04-27 04:45 | 11.03 | 8140 | 14900 (1939) | 690 (2010) | 4340 | 1380 | 1690 | 2440 | 2730 | 3770 | 5480 | 5850 | 7390 | 9090 |
| 2026-04-27 03:45 | 11.04 | 8170 | 14900 (1939) | 690 (2010) | 4340 | 1380 | 1690 | 2440 | 2730 | 3770 | 5480 | 5850 | 7390 | 9090 |
| 2026-04-27 02:45 | 11.01 | 8080 | 14900 (1939) | 690 (2010) | 4340 | 1380 | 1690 | 2440 | 2730 | 3770 | 5480 | 5850 | 7390 | 9090 |
| 2026-04-27 01:45 | 10.99 | 8020 | 14900 (1939) | 690 (2010) | 4340 | 1380 | 1690 | 2440 | 2730 | 3770 | 5480 | 5850 | 7390 | 9090 |
| 2026-04-27 00:45 | 11.00 | 8050 | 14900 (1939) | 690 (2010) | 4340 | 1380 | 1690 | 2440 | 2730 | 3770 | 5480 | 5850 | 7390 | 9090 |
| 2026-04-26 23:45 | 11.04 | 8170 | 14900 (1939) | 690 (2010) | 4340 | 1380 | 1690 | 2440 | 2730 | 3770 | 5480 | 5850 | 7390 | 9090 |
| 2026-04-26 22:45 | 11.02 | 8110 | 12800 (1939) | 718 (2010) | 4420 | 1420 | 1800 | 2550 | 2820 | 3910 | 5790 | 6020 | 7450 | 9060 |
| 2026-04-26 21:45 | 11.06 | 8220 | 12800 (1939) | 718 (2010) | 4420 | 1420 | 1800 | 2550 | 2820 | 3910 | 5790 | 6020 | 7450 | 9060 |
| 2026-04-26 20:45 | 11.04 | 8170 | 12800 (1939) | 718 (2010) | 4420 | 1420 | 1800 | 2550 | 2820 | 3910 | 5790 | 6020 | 7450 | 9060 |
| 2026-04-26 19:45 | 11.01 | 8080 | 12800 (1939) | 718 (2010) | 4420 | 1420 | 1800 | 2550 | 2820 | 3910 | 5790 | 6020 | 7450 | 9060 |
| 2026-04-26 18:45 | 11.00 | 8050 | 12800 (1939) | 718 (2010) | 4420 | 1420 | 1800 | 2550 | 2820 | 3910 | 5790 | 6020 | 7450 | 9060 |
| 2026-04-26 17:45 | 11.03 | 8140 | 12800 (1939) | 718 (2010) | 4420 | 1420 | 1800 | 2550 | 2820 | 3910 | 5790 | 6020 | 7450 | 9060 |
| 2026-04-26 16:45 | 11.03 | 8140 | 12800 (1939) | 718 (2010) | 4420 | 1420 | 1800 | 2550 | 2820 | 3910 | 5790 | 6020 | 7450 | 9060 |
| 2026-04-26 15:45 | 11.04 | 8170 | 12800 (1939) | 718 (2010) | 4420 | 1420 | 1800 | 2550 | 2820 | 3910 | 5790 | 6020 | 7450 | 9060 |
| 2026-04-26 14:45 | 11.02 | 8110 | 12800 (1939) | 718 (2010) | 4420 | 1420 | 1800 | 2550 | 2820 | 3910 | 5790 | 6020 | 7450 | 9060 |
| 2026-04-26 13:45 | 11.04 | 8170 | 12800 (1939) | 718 (2010) | 4420 | 1420 | 1800 | 2550 | 2820 | 3910 | 5790 | 6020 | 7450 | 9060 |
| 2026-04-26 12:45 | 11.06 | 8220 | 12800 (1939) | 718 (2010) | 4420 | 1420 | 1800 | 2550 | 2820 | 3910 | 5790 | 6020 | 7450 | 9060 |
| 2026-04-26 11:45 | 11.03 | 8140 | 12800 (1939) | 718 (2010) | 4420 | 1420 | 1800 | 2550 | 2820 | 3910 | 5790 | 6020 | 7450 | 9060 |
| 2026-04-26 10:45 | 11.07 | 8250 | 12800 (1939) | 718 (2010) | 4420 | 1420 | 1800 | 2550 | 2820 | 3910 | 5790 | 6020 | 7450 | 9060 |
| 2026-04-26 09:45 | 11.04 | 8170 | 12800 (1939) | 718 (2010) | 4420 | 1420 | 1800 | 2550 | 2820 | 3910 | 5790 | 6020 | 7450 | 9060 |
| 2026-04-26 08:45 | 11.03 | 8140 | 12800 (1939) | 718 (2010) | 4420 | 1420 | 1800 | 2550 | 2820 | 3910 | 5790 | 6020 | 7450 | 9060 |
| 2026-04-26 07:45 | 11.05 | 8190 | 12800 (1939) | 718 (2010) | 4420 | 1420 | 1800 | 2550 | 2820 | 3910 | 5790 | 6020 | 7450 | 9060 |
| 2026-04-26 06:45 | 11.03 | 8140 | 12800 (1939) | 718 (2010) | 4420 | 1420 | 1800 | 2550 | 2820 | 3910 | 5790 | 6020 | 7450 | 9060 |
| 2026-04-26 05:45 | 11.03 | 8140 | 12800 (1939) | 718 (2010) | 4420 | 1420 | 1800 | 2550 | 2820 | 3910 | 5790 | 6020 | 7450 | 9060 |
| 2026-04-26 04:45 | 11.06 | 8220 | 12800 (1939) | 718 (2010) | 4420 | 1420 | 1800 | 2550 | 2820 | 3910 | 5790 | 6020 | 7450 | 9060 |
| 2026-04-26 03:45 | 11.08 | 8280 | 12800 (1939) | 718 (2010) | 4420 | 1420 | 1800 | 2550 | 2820 | 3910 | 5790 | 6020 | 7450 | 9060 |
| 2026-04-26 02:45 | 11.05 | 8190 | 12800 (1939) | 718 (2010) | 4420 | 1420 | 1800 | 2550 | 2820 | 3910 | 5790 | 6020 | 7450 | 9060 |
| 2026-04-26 01:45 | 11.05 | 8190 | 12800 (1939) | 718 (2010) | 4420 | 1420 | 1800 | 2550 | 2820 | 3910 | 5790 | 6020 | 7450 | 9060 |
| 2026-04-26 00:45 | 11.07 | 8250 | 12800 (1939) | 718 (2010) | 4420 | 1420 | 1800 | 2550 | 2820 | 3910 | 5790 | 6020 | 7450 | 9060 |
| 2026-04-25 23:45 | 11.06 | 8220 | 12800 (1939) | 718 (2010) | 4420 | 1420 | 1800 | 2550 | 2820 | 3910 | 5790 | 6020 | 7450 | 9060 |
| 2026-04-25 22:45 | 11.03 | 8140 | 11600 (1985) | 741 (2010) | 4500 | 1480 | 1890 | 2620 | 2930 | 4030 | 5900 | 6340 | 7440 | 8780 |
| 2026-04-25 21:45 | 11.05 | 8190 | 11600 (1985) | 741 (2010) | 4500 | 1480 | 1890 | 2620 | 2930 | 4030 | 5900 | 6340 | 7440 | 8780 |
| 2026-04-25 20:45 | 11.05 | 8190 | 11600 (1985) | 741 (2010) | 4500 | 1480 | 1890 | 2620 | 2930 | 4030 | 5900 | 6340 | 7440 | 8780 |
| 2026-04-25 19:45 | 11.05 | 8190 | 11600 (1985) | 741 (2010) | 4500 | 1480 | 1890 | 2620 | 2930 | 4030 | 5900 | 6340 | 7440 | 8780 |
| 2026-04-25 18:45 | 11.04 | 8170 | 11600 (1985) | 741 (2010) | 4500 | 1480 | 1890 | 2620 | 2930 | 4030 | 5900 | 6340 | 7440 | 8780 |
| 2026-04-25 17:45 | 11.06 | 8220 | 11600 (1985) | 741 (2010) | 4500 | 1480 | 1890 | 2620 | 2930 | 4030 | 5900 | 6340 | 7440 | 8780 |
| 2026-04-25 16:45 | 11.07 | 8250 | 11600 (1985) | 741 (2010) | 4500 | 1480 | 1890 | 2620 | 2930 | 4030 | 5900 | 6340 | 7440 | 8780 |
| 2026-04-25 15:45 | 11.10 | 8340 | 11600 (1985) | 741 (2010) | 4500 | 1480 | 1890 | 2620 | 2930 | 4030 | 5900 | 6340 | 7440 | 8780 |
| 2026-04-25 14:45 | 11.10 | 8340 | 11600 (1985) | 741 (2010) | 4500 | 1480 | 1890 | 2620 | 2930 | 4030 | 5900 | 6340 | 7440 | 8780 |
| 2026-04-25 13:45 | 11.08 | 8280 | 11600 (1985) | 741 (2010) | 4500 | 1480 | 1890 | 2620 | 2930 | 4030 | 5900 | 6340 | 7440 | 8780 |
| 2026-04-25 12:45 | 11.10 | 8340 | 11600 (1985) | 741 (2010) | 4500 | 1480 | 1890 | 2620 | 2930 | 4030 | 5900 | 6340 | 7440 | 8780 |
| 2026-04-25 11:45 | 11.08 | 8280 | 11600 (1985) | 741 (2010) | 4500 | 1480 | 1890 | 2620 | 2930 | 4030 | 5900 | 6340 | 7440 | 8780 |
| 2026-04-25 10:45 | 11.14 | 8470 | 11600 (1985) | 741 (2010) | 4500 | 1480 | 1890 | 2620 | 2930 | 4030 | 5900 | 6340 | 7440 | 8780 |
| 2026-04-25 09:45 | 11.09 | 8310 | 11600 (1985) | 741 (2010) | 4500 | 1480 | 1890 | 2620 | 2930 | 4030 | 5900 | 6340 | 7440 | 8780 |
| 2026-04-25 08:45 | 11.10 | 8340 | 11600 (1985) | 741 (2010) | 4500 | 1480 | 1890 | 2620 | 2930 | 4030 | 5900 | 6340 | 7440 | 8780 |
| 2026-04-25 07:45 | 11.17 | 8560 | 11600 (1985) | 741 (2010) | 4500 | 1480 | 1890 | 2620 | 2930 | 4030 | 5900 | 6340 | 7440 | 8780 |
| 2026-04-25 06:45 | 11.11 | 8370 | 11600 (1985) | 741 (2010) | 4500 | 1480 | 1890 | 2620 | 2930 | 4030 | 5900 | 6340 | 7440 | 8780 |
| 2026-04-25 05:45 | 11.10 | 8340 | 11600 (1985) | 741 (2010) | 4500 | 1480 | 1890 | 2620 | 2930 | 4030 | 5900 | 6340 | 7440 | 8780 |
| 2026-04-25 04:45 | 11.12 | 8400 | 11600 (1985) | 741 (2010) | 4500 | 1480 | 1890 | 2620 | 2930 | 4030 | 5900 | 6340 | 7440 | 8780 |
| 2026-04-25 03:45 | 11.14 | 8470 | 11600 (1985) | 741 (2010) | 4500 | 1480 | 1890 | 2620 | 2930 | 4030 | 5900 | 6340 | 7440 | 8780 |
| 2026-04-25 02:45 | 11.12 | 8400 | 11600 (1985) | 741 (2010) | 4500 | 1480 | 1890 | 2620 | 2930 | 4030 | 5900 | 6340 | 7440 | 8780 |
| 2026-04-25 01:45 | 11.16 | 8530 | 11600 (1985) | 741 (2010) | 4500 | 1480 | 1890 | 2620 | 2930 | 4030 | 5900 | 6340 | 7440 | 8780 |
| 2026-04-25 00:45 | 11.15 | 8500 | 11600 (1985) | 741 (2010) | 4500 | 1480 | 1890 | 2620 | 2930 | 4030 | 5900 | 6340 | 7440 | 8780 |
| 2026-04-24 23:45 | 11.15 | 8500 | 11600 (1985) | 741 (2010) | 4500 | 1480 | 1890 | 2620 | 2930 | 4030 | 5900 | 6340 | 7440 | 8780 |
| 2026-04-24 22:45 | 11.16 | 8530 | 12400 (1985) | 766 (2010) | 4560 | 1500 | 1960 | 2760 | 2910 | 4080 | 6010 | 6400 | 7350 | 8240 |
| 2026-04-24 21:45 | 11.19 | 8620 | 12400 (1985) | 766 (2010) | 4560 | 1500 | 1960 | 2760 | 2910 | 4080 | 6010 | 6400 | 7350 | 8240 |
| 2026-04-24 20:45 | 11.18 | 8590 | 12400 (1985) | 766 (2010) | 4560 | 1500 | 1960 | 2760 | 2910 | 4080 | 6010 | 6400 | 7350 | 8240 |
| 2026-04-24 19:45 | 11.17 | 8560 | 12400 (1985) | 766 (2010) | 4560 | 1500 | 1960 | 2760 | 2910 | 4080 | 6010 | 6400 | 7350 | 8240 |
| 2026-04-24 18:45 | 11.21 | 8680 | 12400 (1985) | 766 (2010) | 4560 | 1500 | 1960 | 2760 | 2910 | 4080 | 6010 | 6400 | 7350 | 8240 |
| 2026-04-24 17:45 | 11.18 | 8590 | 12400 (1985) | 766 (2010) | 4560 | 1500 | 1960 | 2760 | 2910 | 4080 | 6010 | 6400 | 7350 | 8240 |
| 2026-04-24 16:45 | 11.18 | 8590 | 12400 (1985) | 766 (2010) | 4560 | 1500 | 1960 | 2760 | 2910 | 4080 | 6010 | 6400 | 7350 | 8240 |
| 2026-04-24 15:45 | 11.20 | 8650 | 12400 (1985) | 766 (2010) | 4560 | 1500 | 1960 | 2760 | 2910 | 4080 | 6010 | 6400 | 7350 | 8240 |
| 2026-04-24 14:45 | 11.20 | 8650 | 12400 (1985) | 766 (2010) | 4560 | 1500 | 1960 | 2760 | 2910 | 4080 | 6010 | 6400 | 7350 | 8240 |
| 2026-04-24 13:45 | 11.21 | 8680 | 12400 (1985) | 766 (2010) | 4560 | 1500 | 1960 | 2760 | 2910 | 4080 | 6010 | 6400 | 7350 | 8240 |
| 2026-04-24 12:45 | 11.24 | 8770 | 12400 (1985) | 766 (2010) | 4560 | 1500 | 1960 | 2760 | 2910 | 4080 | 6010 | 6400 | 7350 | 8240 |
| 2026-04-24 11:45 | 11.22 | 8710 | 12400 (1985) | 766 (2010) | 4560 | 1500 | 1960 | 2760 | 2910 | 4080 | 6010 | 6400 | 7350 | 8240 |
| 2026-04-24 10:45 | 11.23 | 8740 | 12400 (1985) | 766 (2010) | 4560 | 1500 | 1960 | 2760 | 2910 | 4080 | 6010 | 6400 | 7350 | 8240 |
| 2026-04-24 09:45 | 11.23 | 8740 | 12400 (1985) | 766 (2010) | 4560 | 1500 | 1960 | 2760 | 2910 | 4080 | 6010 | 6400 | 7350 | 8240 |
| 2026-04-24 08:45 | 11.25 | 8810 | 12400 (1985) | 766 (2010) | 4560 | 1500 | 1960 | 2760 | 2910 | 4080 | 6010 | 6400 | 7350 | 8240 |
| 2026-04-24 07:45 | 11.25 | 8810 | 12400 (1985) | 766 (2010) | 4560 | 1500 | 1960 | 2760 | 2910 | 4080 | 6010 | 6400 | 7350 | 8240 |
| 2026-04-24 06:45 | 11.25 | 8810 | 12400 (1985) | 766 (2010) | 4560 | 1500 | 1960 | 2760 | 2910 | 4080 | 6010 | 6400 | 7350 | 8240 |
| 2026-04-24 05:45 | 11.27 | 8870 | 12400 (1985) | 766 (2010) | 4560 | 1500 | 1960 | 2760 | 2910 | 4080 | 6010 | 6400 | 7350 | 8240 |
| 2026-04-24 04:45 | 11.25 | 8810 | 12400 (1985) | 766 (2010) | 4560 | 1500 | 1960 | 2760 | 2910 | 4080 | 6010 | 6400 | 7350 | 8240 |
| 2026-04-24 03:45 | 11.26 | 8840 | 12400 (1985) | 766 (2010) | 4560 | 1500 | 1960 | 2760 | 2910 | 4080 | 6010 | 6400 | 7350 | 8240 |
| 2026-04-24 02:45 | 11.27 | 8870 | 12400 (1985) | 766 (2010) | 4560 | 1500 | 1960 | 2760 | 2910 | 4080 | 6010 | 6400 | 7350 | 8240 |
| 2026-04-24 01:45 | 11.31 | 8990 | 12400 (1985) | 766 (2010) | 4560 | 1500 | 1960 | 2760 | 2910 | 4080 | 6010 | 6400 | 7350 | 8240 |
| 2026-04-24 00:45 | 11.27 | 8870 | 12400 (1985) | 766 (2010) | 4560 | 1500 | 1960 | 2760 | 2910 | 4080 | 6010 | 6400 | 7350 | 8240 |
| 2026-04-23 23:45 | 11.31 | 8990 | 12400 (1985) | 766 (2010) | 4560 | 1500 | 1960 | 2760 | 2910 | 4080 | 6010 | 6400 | 7350 | 8240 |
| 2026-04-23 22:45 | 11.33 | 9060 | 12900 (1985) | 794 (2010) | 4580 | 1570 | 1990 | 2770 | 3020 | 4190 | 5850 | 6150 | 7200 | 7840 |
| 2026-04-23 21:45 | 11.32 | 9020 | 12900 (1985) | 794 (2010) | 4580 | 1570 | 1990 | 2770 | 3020 | 4190 | 5850 | 6150 | 7200 | 7840 |
| 2026-04-23 20:45 | 11.32 | 9020 | 12900 (1985) | 794 (2010) | 4580 | 1570 | 1990 | 2770 | 3020 | 4190 | 5850 | 6150 | 7200 | 7840 |
| 2026-04-23 19:45 | 11.36 | 9150 | 12900 (1985) | 794 (2010) | 4580 | 1570 | 1990 | 2770 | 3020 | 4190 | 5850 | 6150 | 7200 | 7840 |
| 2026-04-23 18:45 | 11.33 | 9060 | 12900 (1985) | 794 (2010) | 4580 | 1570 | 1990 | 2770 | 3020 | 4190 | 5850 | 6150 | 7200 | 7840 |
| 2026-04-23 17:45 | 11.37 | 9180 | 12900 (1985) | 794 (2010) | 4580 | 1570 | 1990 | 2770 | 3020 | 4190 | 5850 | 6150 | 7200 | 7840 |
| 2026-04-23 16:45 | 11.37 | 9180 | 12900 (1985) | 794 (2010) | 4580 | 1570 | 1990 | 2770 | 3020 | 4190 | 5850 | 6150 | 7200 | 7840 |
| 2026-04-23 15:45 | 11.38 | 9220 | 12900 (1985) | 794 (2010) | 4580 | 1570 | 1990 | 2770 | 3020 | 4190 | 5850 | 6150 | 7200 | 7840 |
| 2026-04-23 14:45 | 11.39 | 9250 | 12900 (1985) | 794 (2010) | 4580 | 1570 | 1990 | 2770 | 3020 | 4190 | 5850 | 6150 | 7200 | 7840 |
| 2026-04-23 13:45 | 11.41 | 9310 | 12900 (1985) | 794 (2010) | 4580 | 1570 | 1990 | 2770 | 3020 | 4190 | 5850 | 6150 | 7200 | 7840 |
| 2026-04-23 12:45 | 11.40 | 9280 | 12900 (1985) | 794 (2010) | 4580 | 1570 | 1990 | 2770 | 3020 | 4190 | 5850 | 6150 | 7200 | 7840 |
| 2026-04-23 11:45 | 11.43 | 9380 | 12900 (1985) | 794 (2010) | 4580 | 1570 | 1990 | 2770 | 3020 | 4190 | 5850 | 6150 | 7200 | 7840 |
| 2026-04-23 10:45 | 11.41 | 9310 | 12900 (1985) | 794 (2010) | 4580 | 1570 | 1990 | 2770 | 3020 | 4190 | 5850 | 6150 | 7200 | 7840 |
| 2026-04-23 09:45 | 11.42 | 9350 | 12900 (1985) | 794 (2010) | 4580 | 1570 | 1990 | 2770 | 3020 | 4190 | 5850 | 6150 | 7200 | 7840 |
| 2026-04-23 08:45 | 11.44 | 8940 | 12900 (1985) | 794 (2010) | 4580 | 1570 | 1990 | 2770 | 3020 | 4190 | 5850 | 6150 | 7200 | 7840 |
| 2026-04-23 07:45 | 11.46 | 9010 | 12900 (1985) | 794 (2010) | 4580 | 1570 | 1990 | 2770 | 3020 | 4190 | 5850 | 6150 | 7200 | 7840 |
| 2026-04-23 06:45 | 11.46 | 9010 | 12900 (1985) | 794 (2010) | 4580 | 1570 | 1990 | 2770 | 3020 | 4190 | 5850 | 6150 | 7200 | 7840 |
| 2026-04-23 05:45 | 11.49 | 9110 | 12900 (1985) | 794 (2010) | 4580 | 1570 | 1990 | 2770 | 3020 | 4190 | 5850 | 6150 | 7200 | 7840 |
| 2026-04-23 04:45 | 11.48 | 9070 | 12900 (1985) | 794 (2010) | 4580 | 1570 | 1990 | 2770 | 3020 | 4190 | 5850 | 6150 | 7200 | 7840 |
| 2026-04-23 03:45 | 11.47 | 9040 | 12900 (1985) | 794 (2010) | 4580 | 1570 | 1990 | 2770 | 3020 | 4190 | 5850 | 6150 | 7200 | 7840 |
| 2026-04-23 02:45 | 11.50 | 9140 | 12900 (1985) | 794 (2010) | 4580 | 1570 | 1990 | 2770 | 3020 | 4190 | 5850 | 6150 | 7200 | 7840 |
| 2026-04-23 01:45 | 11.49 | 9110 | 12900 (1985) | 794 (2010) | 4580 | 1570 | 1990 | 2770 | 3020 | 4190 | 5850 | 6150 | 7200 | 7840 |
| 2026-04-23 00:45 | 11.51 | 9180 | 12900 (1985) | 794 (2010) | 4580 | 1570 | 1990 | 2770 | 3020 | 4190 | 5850 | 6150 | 7200 | 7840 |
| 2026-04-22 23:45 | 11.53 | 9250 | 12900 (1985) | 794 (2010) | 4580 | 1570 | 1990 | 2770 | 3020 | 4190 | 5850 | 6150 | 7200 | 7840 |
| 2026-04-22 22:45 | 11.53 | 9250 | 12900 (1985) | 829 (2010) | 4550 | 1610 | 2050 | 2850 | 3090 | 4300 | 5890 | 6090 | 6850 | 7710 |
| 2026-04-22 21:45 | 11.55 | 9310 | 12900 (1985) | 829 (2010) | 4550 | 1610 | 2050 | 2850 | 3090 | 4300 | 5890 | 6090 | 6850 | 7710 |
| 2026-04-22 20:45 | 11.59 | 9450 | 12900 (1985) | 829 (2010) | 4550 | 1610 | 2050 | 2850 | 3090 | 4300 | 5890 | 6090 | 6850 | 7710 |
| 2026-04-22 19:45 | 11.58 | 9420 | 12900 (1985) | 829 (2010) | 4550 | 1610 | 2050 | 2850 | 3090 | 4300 | 5890 | 6090 | 6850 | 7710 |
| 2026-04-22 18:45 | 11.60 | 9490 | 12900 (1985) | 829 (2010) | 4550 | 1610 | 2050 | 2850 | 3090 | 4300 | 5890 | 6090 | 6850 | 7710 |
| 2026-04-22 17:45 | 11.62 | 9560 | 12900 (1985) | 829 (2010) | 4550 | 1610 | 2050 | 2850 | 3090 | 4300 | 5890 | 6090 | 6850 | 7710 |
| 2026-04-22 16:45 | 11.59 | 9450 | 12900 (1985) | 829 (2010) | 4550 | 1610 | 2050 | 2850 | 3090 | 4300 | 5890 | 6090 | 6850 | 7710 |
| 2026-04-22 15:45 | 11.63 | 9600 | 12900 (1985) | 829 (2010) | 4550 | 1610 | 2050 | 2850 | 3090 | 4300 | 5890 | 6090 | 6850 | 7710 |
| 2026-04-22 14:45 | 11.62 | 9560 | 12900 (1985) | 829 (2010) | 4550 | 1610 | 2050 | 2850 | 3090 | 4300 | 5890 | 6090 | 6850 | 7710 |
| 2026-04-22 13:45 | 11.65 | 9670 | 12900 (1985) | 829 (2010) | 4550 | 1610 | 2050 | 2850 | 3090 | 4300 | 5890 | 6090 | 6850 | 7710 |
| 2026-04-22 11:45 | 11.67 | 9740 | 12900 (1985) | 829 (2010) | 4550 | 1610 | 2050 | 2850 | 3090 | 4300 | 5890 | 6090 | 6850 | 7710 |
| 2026-04-22 10:45 | 11.67 | 9740 | 12900 (1985) | 829 (2010) | 4550 | 1610 | 2050 | 2850 | 3090 | 4300 | 5890 | 6090 | 6850 | 7710 |
| 2026-04-22 09:45 | 11.72 | 9920 | 12900 (1985) | 829 (2010) | 4550 | 1610 | 2050 | 2850 | 3090 | 4300 | 5890 | 6090 | 6850 | 7710 |
| 2026-04-22 08:45 | 11.74 | 9990 | 12900 (1985) | 829 (2010) | 4550 | 1610 | 2050 | 2850 | 3090 | 4300 | 5890 | 6090 | 6850 | 7710 |
| 2026-04-22 07:45 | 11.72 | 9920 | 12900 (1985) | 829 (2010) | 4550 | 1610 | 2050 | 2850 | 3090 | 4300 | 5890 | 6090 | 6850 | 7710 |
| 2026-04-22 06:45 | 11.73 | 9960 | 12900 (1985) | 829 (2010) | 4550 | 1610 | 2050 | 2850 | 3090 | 4300 | 5890 | 6090 | 6850 | 7710 |
| 2026-04-22 05:45 | 11.76 | 10100 | 12900 (1985) | 829 (2010) | 4550 | 1610 | 2050 | 2850 | 3090 | 4300 | 5890 | 6090 | 6850 | 7710 |
| 2026-04-22 04:45 | 11.79 | 10200 | 12900 (1985) | 829 (2010) | 4550 | 1610 | 2050 | 2850 | 3090 | 4300 | 5890 | 6090 | 6850 | 7710 |
| 2026-04-22 03:45 | 11.79 | 10200 | 12900 (1985) | 829 (2010) | 4550 | 1610 | 2050 | 2850 | 3090 | 4300 | 5890 | 6090 | 6850 | 7710 |
| 2026-04-22 02:45 | 11.82 | 10300 | 12900 (1985) | 829 (2010) | 4550 | 1610 | 2050 | 2850 | 3090 | 4300 | 5890 | 6090 | 6850 | 7710 |
| 2026-04-22 01:45 | 11.83 | 10300 | 12900 (1985) | 829 (2010) | 4550 | 1610 | 2050 | 2850 | 3090 | 4300 | 5890 | 6090 | 6850 | 7710 |
| 2026-04-22 00:45 | 11.84 | 10400 | 12900 (1985) | 829 (2010) | 4550 | 1610 | 2050 | 2850 | 3090 | 4300 | 5890 | 6090 | 6850 | 7710 |
| 2026-04-21 23:45 | 11.84 | 10400 | 12900 (1985) | 829 (2010) | 4550 | 1610 | 2050 | 2850 | 3090 | 4300 | 5890 | 6090 | 6850 | 7710 |
| 2026-04-21 22:45 | 11.87 | 10500 | 11000 (1985) | 878 (2010) | 4520 | 1600 | 2060 | 2820 | 3170 | 4370 | 5490 | 6050 | 7050 | 8120 |
| 2026-04-21 21:45 | 11.89 | 10600 | 11000 (1985) | 878 (2010) | 4520 | 1600 | 2060 | 2820 | 3170 | 4370 | 5490 | 6050 | 7050 | 8120 |
| 2026-04-21 20:45 | 11.89 | 10600 | 11000 (1985) | 878 (2010) | 4520 | 1600 | 2060 | 2820 | 3170 | 4370 | 5490 | 6050 | 7050 | 8120 |
| 2026-04-21 19:45 | 11.94 | 10700 | 11000 (1985) | 878 (2010) | 4520 | 1600 | 2060 | 2820 | 3170 | 4370 | 5490 | 6050 | 7050 | 8120 |
| 2026-04-21 18:45 | 11.96 | 10800 | 11000 (1985) | 878 (2010) | 4520 | 1600 | 2060 | 2820 | 3170 | 4370 | 5490 | 6050 | 7050 | 8120 |
| 2026-04-21 16:45 | 11.96 | 10800 | 11000 (1985) | 878 (2010) | 4520 | 1600 | 2060 | 2820 | 3170 | 4370 | 5490 | 6050 | 7050 | 8120 |
| 2026-04-21 15:45 | 11.98 | 10900 | 11000 (1985) | 878 (2010) | 4520 | 1600 | 2060 | 2820 | 3170 | 4370 | 5490 | 6050 | 7050 | 8120 |
| 2026-04-21 14:45 | 12.02 | 11100 | 11000 (1985) | 878 (2010) | 4520 | 1600 | 2060 | 2820 | 3170 | 4370 | 5490 | 6050 | 7050 | 8120 |
| 2026-04-21 13:45 | 12.03 | 11100 | 11000 (1985) | 878 (2010) | 4520 | 1600 | 2060 | 2820 | 3170 | 4370 | 5490 | 6050 | 7050 | 8120 |
| 2026-04-21 11:45 | 12.07 | 11300 | 11000 (1985) | 878 (2010) | 4520 | 1600 | 2060 | 2820 | 3170 | 4370 | 5490 | 6050 | 7050 | 8120 |
| 2026-04-21 09:45 | 12.11 | 11400 | 11000 (1985) | 878 (2010) | 4520 | 1600 | 2060 | 2820 | 3170 | 4370 | 5490 | 6050 | 7050 | 8120 |
| 2026-04-21 08:45 | 12.13 | 11500 | 11000 (1985) | 878 (2010) | 4520 | 1600 | 2060 | 2820 | 3170 | 4370 | 5490 | 6050 | 7050 | 8120 |
| 2026-04-21 07:45 | 12.17 | 11700 | 11000 (1985) | 878 (2010) | 4520 | 1600 | 2060 | 2820 | 3170 | 4370 | 5490 | 6050 | 7050 | 8120 |
| 2026-04-21 06:45 | 12.18 | 11700 | 11000 (1985) | 878 (2010) | 4520 | 1600 | 2060 | 2820 | 3170 | 4370 | 5490 | 6050 | 7050 | 8120 |
| 2026-04-21 05:45 | 12.17 | 11700 | 11000 (1985) | 878 (2010) | 4520 | 1600 | 2060 | 2820 | 3170 | 4370 | 5490 | 6050 | 7050 | 8120 |
| 2026-04-21 04:45 | 12.22 | 11900 | 11000 (1985) | 878 (2010) | 4520 | 1600 | 2060 | 2820 | 3170 | 4370 | 5490 | 6050 | 7050 | 8120 |
| 2026-04-21 03:45 | 12.25 | 12000 | 11000 (1985) | 878 (2010) | 4520 | 1600 | 2060 | 2820 | 3170 | 4370 | 5490 | 6050 | 7050 | 8120 |
| 2026-04-21 02:45 | 12.24 | 12000 | 11000 (1985) | 878 (2010) | 4520 | 1600 | 2060 | 2820 | 3170 | 4370 | 5490 | 6050 | 7050 | 8120 |
| 2026-04-21 01:45 | 12.25 | 12000 | 11000 (1985) | 878 (2010) | 4520 | 1600 | 2060 | 2820 | 3170 | 4370 | 5490 | 6050 | 7050 | 8120 |
| 2026-04-21 00:45 | 12.28 | 12100 | 11000 (1985) | 878 (2010) | 4520 | 1600 | 2060 | 2820 | 3170 | 4370 | 5490 | 6050 | 7050 | 8120 |
| 2026-04-20 23:45 | 12.33 | 12300 | 11000 (1985) | 878 (2010) | 4520 | 1600 | 2060 | 2820 | 3170 | 4370 | 5490 | 6050 | 7050 | 8120 |
| 2026-04-20 22:45 | 12.34 | 12400 | 10400 (1971) | 919 (2010) | 4520 | 1560 | 2200 | 2860 | 3180 | 4210 | 5640 | 6080 | 7270 | 8610 |
| 2026-04-20 21:45 | 12.38 | 12500 | 10400 (1971) | 919 (2010) | 4520 | 1560 | 2200 | 2860 | 3180 | 4210 | 5640 | 6080 | 7270 | 8610 |
| 2026-04-20 20:45 | 12.37 | 12500 | 10400 (1971) | 919 (2010) | 4520 | 1560 | 2200 | 2860 | 3180 | 4210 | 5640 | 6080 | 7270 | 8610 |
| 2026-04-20 19:45 | 12.40 | 12600 | 10400 (1971) | 919 (2010) | 4520 | 1560 | 2200 | 2860 | 3180 | 4210 | 5640 | 6080 | 7270 | 8610 |
| 2026-04-20 18:45 | 12.43 | 12800 | 10400 (1971) | 919 (2010) | 4520 | 1560 | 2200 | 2860 | 3180 | 4210 | 5640 | 6080 | 7270 | 8610 |
| 2026-04-20 17:45 | 12.47 | 12900 | 10400 (1971) | 919 (2010) | 4520 | 1560 | 2200 | 2860 | 3180 | 4210 | 5640 | 6080 | 7270 | 8610 |
| 2026-04-20 16:45 | 12.46 | 12900 | 10400 (1971) | 919 (2010) | 4520 | 1560 | 2200 | 2860 | 3180 | 4210 | 5640 | 6080 | 7270 | 8610 |
| 2026-04-20 15:45 | 12.46 | 12900 | 10400 (1971) | 919 (2010) | 4520 | 1560 | 2200 | 2860 | 3180 | 4210 | 5640 | 6080 | 7270 | 8610 |
| 2026-04-20 14:45 | 12.49 | 13000 | 10400 (1971) | 919 (2010) | 4520 | 1560 | 2200 | 2860 | 3180 | 4210 | 5640 | 6080 | 7270 | 8610 |
| 2026-04-20 12:45 | 12.57 | 13400 | 10400 (1971) | 919 (2010) | 4520 | 1560 | 2200 | 2860 | 3180 | 4210 | 5640 | 6080 | 7270 | 8610 |
| 2026-04-20 11:45 | 12.57 | 13400 | 10400 (1971) | 919 (2010) | 4520 | 1560 | 2200 | 2860 | 3180 | 4210 | 5640 | 6080 | 7270 | 8610 |
| 2026-04-20 10:45 | 12.58 | 13400 | 10400 (1971) | 919 (2010) | 4520 | 1560 | 2200 | 2860 | 3180 | 4210 | 5640 | 6080 | 7270 | 8610 |
| 2026-04-20 09:45 | 12.58 | 13400 | 10400 (1971) | 919 (2010) | 4520 | 1560 | 2200 | 2860 | 3180 | 4210 | 5640 | 6080 | 7270 | 8610 |
| 2026-04-20 08:45 | 12.60 | 13500 | 10400 (1971) | 919 (2010) | 4520 | 1560 | 2200 | 2860 | 3180 | 4210 | 5640 | 6080 | 7270 | 8610 |
| 2026-04-20 07:45 | 12.61 | 13600 | 10400 (1971) | 919 (2010) | 4520 | 1560 | 2200 | 2860 | 3180 | 4210 | 5640 | 6080 | 7270 | 8610 |
| 2026-04-20 06:45 | 12.65 | 13800 | 10400 (1971) | 919 (2010) | 4520 | 1560 | 2200 | 2860 | 3180 | 4210 | 5640 | 6080 | 7270 | 8610 |
| 2026-04-20 05:45 | 12.67 | 13900 | 10400 (1971) | 919 (2010) | 4520 | 1560 | 2200 | 2860 | 3180 | 4210 | 5640 | 6080 | 7270 | 8610 |
| 2026-04-20 04:45 | 12.66 | 13800 | 10400 (1971) | 919 (2010) | 4520 | 1560 | 2200 | 2860 | 3180 | 4210 | 5640 | 6080 | 7270 | 8610 |
| 2026-04-20 03:45 | 12.68 | 13900 | 10400 (1971) | 919 (2010) | 4520 | 1560 | 2200 | 2860 | 3180 | 4210 | 5640 | 6080 | 7270 | 8610 |
| 2026-04-20 02:45 | 12.69 | 14000 | 10400 (1971) | 919 (2010) | 4520 | 1560 | 2200 | 2860 | 3180 | 4210 | 5640 | 6080 | 7270 | 8610 |
| 2026-04-20 01:45 | 12.69 | 14000 | 10400 (1971) | 919 (2010) | 4520 | 1560 | 2200 | 2860 | 3180 | 4210 | 5640 | 6080 | 7270 | 8610 |
| 2026-04-20 00:45 | 12.70 | 14000 | 10400 (1971) | 919 (2010) | 4520 | 1560 | 2200 | 2860 | 3180 | 4210 | 5640 | 6080 | 7270 | 8610 |
| 2026-04-19 23:45 | 12.71 | 14000 | 10400 (1971) | 919 (2010) | 4520 | 1560 | 2200 | 2860 | 3180 | 4210 | 5640 | 6080 | 7270 | 8610 |
| 2026-04-19 22:45 | 12.75 | 14200 | 10800 (1971) | 959 (2012) | 4510 | 1560 | 2280 | 2810 | 3000 | 4170 | 5720 | 6220 | 7220 | 8280 |
| 2026-04-19 21:45 | 12.75 | 14200 | 10800 (1971) | 959 (2012) | 4510 | 1560 | 2280 | 2810 | 3000 | 4170 | 5720 | 6220 | 7220 | 8280 |
| 2026-04-19 20:45 | 12.73 | 14100 | 10800 (1971) | 959 (2012) | 4510 | 1560 | 2280 | 2810 | 3000 | 4170 | 5720 | 6220 | 7220 | 8280 |
| 2026-04-19 19:45 | 12.75 | 14200 | 10800 (1971) | 959 (2012) | 4510 | 1560 | 2280 | 2810 | 3000 | 4170 | 5720 | 6220 | 7220 | 8280 |
| 2026-04-19 18:45 | 12.79 | 14400 | 10800 (1971) | 959 (2012) | 4510 | 1560 | 2280 | 2810 | 3000 | 4170 | 5720 | 6220 | 7220 | 8280 |
| 2026-04-19 17:45 | 12.74 | 14200 | 10800 (1971) | 959 (2012) | 4510 | 1560 | 2280 | 2810 | 3000 | 4170 | 5720 | 6220 | 7220 | 8280 |
| 2026-04-19 16:45 | 12.72 | 14100 | 10800 (1971) | 959 (2012) | 4510 | 1560 | 2280 | 2810 | 3000 | 4170 | 5720 | 6220 | 7220 | 8280 |
| 2026-04-19 15:45 | 12.74 | 14200 | 10800 (1971) | 959 (2012) | 4510 | 1560 | 2280 | 2810 | 3000 | 4170 | 5720 | 6220 | 7220 | 8280 |
| 2026-04-19 14:45 | 12.73 | 14100 | 10800 (1971) | 959 (2012) | 4510 | 1560 | 2280 | 2810 | 3000 | 4170 | 5720 | 6220 | 7220 | 8280 |
| 2026-04-19 13:45 | 12.72 | 14100 | 10800 (1971) | 959 (2012) | 4510 | 1560 | 2280 | 2810 | 3000 | 4170 | 5720 | 6220 | 7220 | 8280 |
| 2026-04-19 12:45 | 12.72 | 14100 | 10800 (1971) | 959 (2012) | 4510 | 1560 | 2280 | 2810 | 3000 | 4170 | 5720 | 6220 | 7220 | 8280 |
| 2026-04-19 11:45 | 12.73 | 14100 | 10800 (1971) | 959 (2012) | 4510 | 1560 | 2280 | 2810 | 3000 | 4170 | 5720 | 6220 | 7220 | 8280 |
| 2026-04-19 10:45 | 12.67 | 13900 | 10800 (1971) | 959 (2012) | 4510 | 1560 | 2280 | 2810 | 3000 | 4170 | 5720 | 6220 | 7220 | 8280 |
| 2026-04-19 09:45 | 12.67 | 13900 | 10800 (1971) | 959 (2012) | 4510 | 1560 | 2280 | 2810 | 3000 | 4170 | 5720 | 6220 | 7220 | 8280 |
| 2026-04-19 08:45 | 12.65 | 13800 | 10800 (1971) | 959 (2012) | 4510 | 1560 | 2280 | 2810 | 3000 | 4170 | 5720 | 6220 | 7220 | 8280 |
| 2026-04-19 07:45 | 12.65 | 13800 | 10800 (1971) | 959 (2012) | 4510 | 1560 | 2280 | 2810 | 3000 | 4170 | 5720 | 6220 | 7220 | 8280 |
| 2026-04-19 06:45 | 12.62 | 13600 | 10800 (1971) | 959 (2012) | 4510 | 1560 | 2280 | 2810 | 3000 | 4170 | 5720 | 6220 | 7220 | 8280 |
| 2026-04-19 05:45 | 12.62 | 13600 | 10800 (1971) | 959 (2012) | 4510 | 1560 | 2280 | 2810 | 3000 | 4170 | 5720 | 6220 | 7220 | 8280 |
| 2026-04-19 04:45 | 12.61 | 13600 | 10800 (1971) | 959 (2012) | 4510 | 1560 | 2280 | 2810 | 3000 | 4170 | 5720 | 6220 | 7220 | 8280 |
| 2026-04-19 03:45 | 12.56 | 13400 | 10800 (1971) | 959 (2012) | 4510 | 1560 | 2280 | 2810 | 3000 | 4170 | 5720 | 6220 | 7220 | 8280 |
| 2026-04-19 02:45 | 12.54 | 13300 | 10800 (1971) | 959 (2012) | 4510 | 1560 | 2280 | 2810 | 3000 | 4170 | 5720 | 6220 | 7220 | 8280 |
| 2026-04-19 01:45 | 12.52 | 13200 | 10800 (1971) | 959 (2012) | 4510 | 1560 | 2280 | 2810 | 3000 | 4170 | 5720 | 6220 | 7220 | 8280 |
| 2026-04-19 00:45 | 12.49 | 13000 | 10800 (1971) | 959 (2012) | 4510 | 1560 | 2280 | 2810 | 3000 | 4170 | 5720 | 6220 | 7220 | 8280 |
| 2026-04-18 23:45 | 12.47 | 12900 | 10800 (1971) | 959 (2012) | 4510 | 1560 | 2280 | 2810 | 3000 | 4170 | 5720 | 6220 | 7220 | 8280 |
| 2026-04-18 22:45 | 12.47 | 12900 | 10700 (1971) | 943 (2012) | 4460 | 1590 | 2160 | 2710 | 2830 | 4080 | 5570 | 6030 | 7340 | 8420 |
| 2026-04-18 21:45 | 12.47 | 12900 | 10700 (1971) | 943 (2012) | 4460 | 1590 | 2160 | 2710 | 2830 | 4080 | 5570 | 6030 | 7340 | 8420 |
| 2026-04-18 20:45 | 12.43 | 12800 | 10700 (1971) | 943 (2012) | 4460 | 1590 | 2160 | 2710 | 2830 | 4080 | 5570 | 6030 | 7340 | 8420 |
| 2026-04-18 19:45 | 12.42 | 12700 | 10700 (1971) | 943 (2012) | 4460 | 1590 | 2160 | 2710 | 2830 | 4080 | 5570 | 6030 | 7340 | 8420 |
| 2026-04-18 18:45 | 12.42 | 12700 | 10700 (1971) | 943 (2012) | 4460 | 1590 | 2160 | 2710 | 2830 | 4080 | 5570 | 6030 | 7340 | 8420 |
| 2026-04-18 17:45 | 12.45 | 12900 | 10700 (1971) | 943 (2012) | 4460 | 1590 | 2160 | 2710 | 2830 | 4080 | 5570 | 6030 | 7340 | 8420 |
| 2026-04-18 16:45 | 12.39 | 12600 | 10700 (1971) | 943 (2012) | 4460 | 1590 | 2160 | 2710 | 2830 | 4080 | 5570 | 6030 | 7340 | 8420 |
| 2026-04-18 14:45 | 12.37 | 12500 | 10700 (1971) | 943 (2012) | 4460 | 1590 | 2160 | 2710 | 2830 | 4080 | 5570 | 6030 | 7340 | 8420 |
| 2026-04-18 13:45 | 12.38 | 12500 | 10700 (1971) | 943 (2012) | 4460 | 1590 | 2160 | 2710 | 2830 | 4080 | 5570 | 6030 | 7340 | 8420 |
| 2026-04-18 12:45 | 12.33 | 12300 | 10700 (1971) | 943 (2012) | 4460 | 1590 | 2160 | 2710 | 2830 | 4080 | 5570 | 6030 | 7340 | 8420 |
| 2026-04-18 11:45 | 12.34 | 12400 | 10700 (1971) | 943 (2012) | 4460 | 1590 | 2160 | 2710 | 2830 | 4080 | 5570 | 6030 | 7340 | 8420 |
| 2026-04-18 10:45 | 12.36 | 12500 | 10700 (1971) | 943 (2012) | 4460 | 1590 | 2160 | 2710 | 2830 | 4080 | 5570 | 6030 | 7340 | 8420 |
| 2026-04-18 09:45 | 12.34 | 12400 | 10700 (1971) | 943 (2012) | 4460 | 1590 | 2160 | 2710 | 2830 | 4080 | 5570 | 6030 | 7340 | 8420 |
| 2026-04-18 08:45 | 12.33 | 12300 | 10700 (1971) | 943 (2012) | 4460 | 1590 | 2160 | 2710 | 2830 | 4080 | 5570 | 6030 | 7340 | 8420 |
| 2026-04-18 07:45 | 12.33 | 12300 | 10700 (1971) | 943 (2012) | 4460 | 1590 | 2160 | 2710 | 2830 | 4080 | 5570 | 6030 | 7340 | 8420 |
| 2026-04-18 06:45 | 12.30 | 12200 | 10700 (1971) | 943 (2012) | 4460 | 1590 | 2160 | 2710 | 2830 | 4080 | 5570 | 6030 | 7340 | 8420 |
| 2026-04-18 05:45 | 12.31 | 12200 | 10700 (1971) | 943 (2012) | 4460 | 1590 | 2160 | 2710 | 2830 | 4080 | 5570 | 6030 | 7340 | 8420 |
| 2026-04-18 04:45 | 12.31 | 12200 | 10700 (1971) | 943 (2012) | 4460 | 1590 | 2160 | 2710 | 2830 | 4080 | 5570 | 6030 | 7340 | 8420 |
| 2026-04-18 03:45 | 12.25 | 12000 | 10700 (1971) | 943 (2012) | 4460 | 1590 | 2160 | 2710 | 2830 | 4080 | 5570 | 6030 | 7340 | 8420 |
| 2026-04-18 02:45 | 12.24 | 12000 | 10700 (1971) | 943 (2012) | 4460 | 1590 | 2160 | 2710 | 2830 | 4080 | 5570 | 6030 | 7340 | 8420 |
| 2026-04-18 01:45 | 12.24 | 12000 | 10700 (1971) | 943 (2012) | 4460 | 1590 | 2160 | 2710 | 2830 | 4080 | 5570 | 6030 | 7340 | 8420 |
| 2026-04-18 00:45 | 12.23 | 11900 | 10700 (1971) | 943 (2012) | 4460 | 1590 | 2160 | 2710 | 2830 | 4080 | 5570 | 6030 | 7340 | 8420 |
| 2026-04-17 23:45 | 12.18 | 11700 | 10700 (1971) | 943 (2012) | 4460 | 1590 | 2160 | 2710 | 2830 | 4080 | 5570 | 6030 | 7340 | 8420 |
| 2026-04-17 22:45 | 12.20 | 11800 | 10400 (1971) | 950 (2012) | 4380 | 1560 | 1940 | 2530 | 2660 | 4140 | 5450 | 6040 | 7830 | 8640 |
| 2026-04-17 20:45 | 12.17 | 11700 | 10400 (1971) | 950 (2012) | 4380 | 1560 | 1940 | 2530 | 2660 | 4140 | 5450 | 6040 | 7830 | 8640 |
| 2026-04-17 19:45 | 12.19 | 11700 | 10400 (1971) | 950 (2012) | 4380 | 1560 | 1940 | 2530 | 2660 | 4140 | 5450 | 6040 | 7830 | 8640 |
| 2026-04-17 17:45 | 12.18 | 11700 | 10400 (1971) | 950 (2012) | 4380 | 1560 | 1940 | 2530 | 2660 | 4140 | 5450 | 6040 | 7830 | 8640 |
| 2026-04-17 16:45 | 12.17 | 11700 | 10400 (1971) | 950 (2012) | 4380 | 1560 | 1940 | 2530 | 2660 | 4140 | 5450 | 6040 | 7830 | 8640 |
| 2026-04-17 15:45 | 12.18 | 11700 | 10400 (1971) | 950 (2012) | 4380 | 1560 | 1940 | 2530 | 2660 | 4140 | 5450 | 6040 | 7830 | 8640 |
| 2026-04-17 14:45 | 12.14 | 11500 | 10400 (1971) | 950 (2012) | 4380 | 1560 | 1940 | 2530 | 2660 | 4140 | 5450 | 6040 | 7830 | 8640 |
| 2026-04-17 13:45 | 12.17 | 11700 | 10400 (1971) | 950 (2012) | 4380 | 1560 | 1940 | 2530 | 2660 | 4140 | 5450 | 6040 | 7830 | 8640 |
| 2026-04-17 12:45 | 12.14 | 11500 | 10400 (1971) | 950 (2012) | 4380 | 1560 | 1940 | 2530 | 2660 | 4140 | 5450 | 6040 | 7830 | 8640 |
| 2026-04-17 11:45 | 12.15 | 11600 | 10400 (1971) | 950 (2012) | 4380 | 1560 | 1940 | 2530 | 2660 | 4140 | 5450 | 6040 | 7830 | 8640 |
| 2026-04-17 10:45 | 12.14 | 11500 | 10400 (1971) | 950 (2012) | 4380 | 1560 | 1940 | 2530 | 2660 | 4140 | 5450 | 6040 | 7830 | 8640 |
| 2026-04-17 07:45 | 12.11 | 11400 | 10400 (1971) | 950 (2012) | 4380 | 1560 | 1940 | 2530 | 2660 | 4140 | 5450 | 6040 | 7830 | 8640 |
| 2026-04-17 06:45 | 12.18 | 11700 | 10400 (1971) | 950 (2012) | 4380 | 1560 | 1940 | 2530 | 2660 | 4140 | 5450 | 6040 | 7830 | 8640 |
| 2026-04-17 05:45 | 12.14 | 11500 | 10400 (1971) | 950 (2012) | 4380 | 1560 | 1940 | 2530 | 2660 | 4140 | 5450 | 6040 | 7830 | 8640 |
| 2026-04-17 04:45 | 12.12 | 11500 | 10400 (1971) | 950 (2012) | 4380 | 1560 | 1940 | 2530 | 2660 | 4140 | 5450 | 6040 | 7830 | 8640 |
| 2026-04-17 03:45 | 12.17 | 11700 | 10400 (1971) | 950 (2012) | 4380 | 1560 | 1940 | 2530 | 2660 | 4140 | 5450 | 6040 | 7830 | 8640 |
| 2026-04-17 02:45 | 12.15 | 11600 | 10400 (1971) | 950 (2012) | 4380 | 1560 | 1940 | 2530 | 2660 | 4140 | 5450 | 6040 | 7830 | 8640 |
| 2026-04-17 01:45 | 12.10 | 11400 | 10400 (1971) | 950 (2012) | 4380 | 1560 | 1940 | 2530 | 2660 | 4140 | 5450 | 6040 | 7830 | 8640 |
| 2026-04-17 00:45 | 12.11 | 11400 | 10400 (1971) | 950 (2012) | 4380 | 1560 | 1940 | 2530 | 2660 | 4140 | 5450 | 6040 | 7830 | 8640 |
| 2026-04-16 23:45 | 12.09 | 11300 | 10400 (1971) | 950 (2012) | 4380 | 1560 | 1940 | 2530 | 2660 | 4140 | 5450 | 6040 | 7830 | 8640 |
| 2026-04-16 21:45 | 12.09 | 11300 | 10200 (2022) | 959 (2012) | 4260 | 1520 | 1950 | 2500 | 2630 | 3950 | 5500 | 5900 | 6890 | 8880 |
| 2026-04-16 20:45 | 12.10 | 11400 | 10200 (2022) | 959 (2012) | 4260 | 1520 | 1950 | 2500 | 2630 | 3950 | 5500 | 5900 | 6890 | 8880 |
| 2026-04-16 18:45 | 12.05 | 11200 | 10200 (2022) | 959 (2012) | 4260 | 1520 | 1950 | 2500 | 2630 | 3950 | 5500 | 5900 | 6890 | 8880 |
| 2026-04-16 15:45 | 12.06 | 11200 | 10200 (2022) | 959 (2012) | 4260 | 1520 | 1950 | 2500 | 2630 | 3950 | 5500 | 5900 | 6890 | 8880 |
| 2026-04-16 14:45 | 12.06 | 11200 | 10200 (2022) | 959 (2012) | 4260 | 1520 | 1950 | 2500 | 2630 | 3950 | 5500 | 5900 | 6890 | 8880 |
| 2026-04-16 11:45 | 12.07 | 11300 | 10200 (2022) | 959 (2012) | 4260 | 1520 | 1950 | 2500 | 2630 | 3950 | 5500 | 5900 | 6890 | 8880 |
| 2026-04-16 10:45 | 12.05 | 11200 | 10200 (2022) | 959 (2012) | 4260 | 1520 | 1950 | 2500 | 2630 | 3950 | 5500 | 5900 | 6890 | 8880 |
| 2026-04-16 06:45 | 12.03 | 11100 | 10200 (2022) | 959 (2012) | 4260 | 1520 | 1950 | 2500 | 2630 | 3950 | 5500 | 5900 | 6890 | 8880 |
| 2026-04-16 05:45 | 12.00 | 10200 (2022) | 959 (2012) | 4260 | 1520 | 1950 | 2500 | 2630 | 3950 | 5500 | 5900 | 6890 | 8880 | |
| 2026-04-16 03:45 | 12.00 | 10200 (2022) | 959 (2012) | 4260 | 1520 | 1950 | 2500 | 2630 | 3950 | 5500 | 5900 | 6890 | 8880 | |
| 2026-04-16 03:15 | 10900 | 10200 (2022) | 959 (2012) | 4260 | 1520 | 1950 | 2500 | 2630 | 3950 | 5500 | 5900 | 6890 | 8880 | |
| 2026-04-16 02:45 | 12.01 | 10200 (2022) | 959 (2012) | 4260 | 1520 | 1950 | 2500 | 2630 | 3950 | 5500 | 5900 | 6890 | 8880 | |
| 2026-04-16 02:30 | 10900 | 10200 (2022) | 959 (2012) | 4260 | 1520 | 1950 | 2500 | 2630 | 3950 | 5500 | 5900 | 6890 | 8880 | |
| 2026-04-16 01:45 | 12.01 | 10200 (2022) | 959 (2012) | 4260 | 1520 | 1950 | 2500 | 2630 | 3950 | 5500 | 5900 | 6890 | 8880 | |
| 2026-04-16 01:30 | 10900 | 10200 (2022) | 959 (2012) | 4260 | 1520 | 1950 | 2500 | 2630 | 3950 | 5500 | 5900 | 6890 | 8880 | |
| 2026-04-16 00:45 | 12.00 | 10200 (2022) | 959 (2012) | 4260 | 1520 | 1950 | 2500 | 2630 | 3950 | 5500 | 5900 | 6890 | 8880 | |
| 2026-04-16 00:30 | 10900 | 10200 (2022) | 959 (2012) | 4260 | 1520 | 1950 | 2500 | 2630 | 3950 | 5500 | 5900 | 6890 | 8880 | |
| 2026-04-15 23:45 | 12.02 | 10200 (2022) | 959 (2012) | 4260 | 1520 | 1950 | 2500 | 2630 | 3950 | 5500 | 5900 | 6890 | 8880 | |
| 2026-04-15 23:30 | 10900 | 10200 (2022) | 959 (2012) | 4260 | 1520 | 1950 | 2500 | 2630 | 3950 | 5500 | 5900 | 6890 | 8880 | |
| 2026-04-15 20:45 | 11.95 | 10800 | 10100 (1971) | 987 (2012) | 4190 | 1520 | 1860 | 2450 | 2580 | 3770 | 5410 | 5720 | 6890 | 9360 |
| 2026-04-15 19:45 | 11.95 | 10800 | 10100 (1971) | 987 (2012) | 4190 | 1520 | 1860 | 2450 | 2580 | 3770 | 5410 | 5720 | 6890 | 9360 |
| 2026-04-15 15:45 | 11.95 | 10800 | 10100 (1971) | 987 (2012) | 4190 | 1520 | 1860 | 2450 | 2580 | 3770 | 5410 | 5720 | 6890 | 9360 |
| 2026-04-15 14:45 | 11.91 | 10600 | 10100 (1971) | 987 (2012) | 4190 | 1520 | 1860 | 2450 | 2580 | 3770 | 5410 | 5720 | 6890 | 9360 |
| 2026-04-15 11:45 | 11.91 | 10600 | 10100 (1971) | 987 (2012) | 4190 | 1520 | 1860 | 2450 | 2580 | 3770 | 5410 | 5720 | 6890 | 9360 |
| 2026-04-15 10:45 | 11.89 | 10600 | 10100 (1971) | 987 (2012) | 4190 | 1520 | 1860 | 2450 | 2580 | 3770 | 5410 | 5720 | 6890 | 9360 |
| 2026-04-15 09:45 | 11.85 | 10400 | 10100 (1971) | 987 (2012) | 4190 | 1520 | 1860 | 2450 | 2580 | 3770 | 5410 | 5720 | 6890 | 9360 |
| 2026-04-15 08:45 | 11.89 | 10600 | 10100 (1971) | 987 (2012) | 4190 | 1520 | 1860 | 2450 | 2580 | 3770 | 5410 | 5720 | 6890 | 9360 |
| 2026-04-15 07:45 | 11.88 | 10500 | 10100 (1971) | 987 (2012) | 4190 | 1520 | 1860 | 2450 | 2580 | 3770 | 5410 | 5720 | 6890 | 9360 |
| 2026-04-15 06:45 | 11.86 | 10400 | 10100 (1971) | 987 (2012) | 4190 | 1520 | 1860 | 2450 | 2580 | 3770 | 5410 | 5720 | 6890 | 9360 |
| 2026-04-15 05:45 | 11.85 | 10400 | 10100 (1971) | 987 (2012) | 4190 | 1520 | 1860 | 2450 | 2580 | 3770 | 5410 | 5720 | 6890 | 9360 |
| 2026-04-15 04:45 | 11.85 | 10400 | 10100 (1971) | 987 (2012) | 4190 | 1520 | 1860 | 2450 | 2580 | 3770 | 5410 | 5720 | 6890 | 9360 |
| 2026-04-15 03:45 | 11.83 | 10300 | 10100 (1971) | 987 (2012) | 4190 | 1520 | 1860 | 2450 | 2580 | 3770 | 5410 | 5720 | 6890 | 9360 |
| 2026-04-15 02:45 | 11.76 | 10100 | 10100 (1971) | 987 (2012) | 4190 | 1520 | 1860 | 2450 | 2580 | 3770 | 5410 | 5720 | 6890 | 9360 |
| 2026-04-15 01:45 | 11.78 | 10100 | 10100 (1971) | 987 (2012) | 4190 | 1520 | 1860 | 2450 | 2580 | 3770 | 5410 | 5720 | 6890 | 9360 |
| 2026-04-15 00:45 | 11.76 | 10100 | 10100 (1971) | 987 (2012) | 4190 | 1520 | 1860 | 2450 | 2580 | 3770 | 5410 | 5720 | 6890 | 9360 |
| 2026-04-14 22:45 | 11.71 | 9880 | 10200 (2001) | 1040 (2012) | 4090 | 1470 | 1850 | 2340 | 2440 | 3740 | 5480 | 5890 | 6810 | 8010 |
| 2026-04-14 21:45 | 11.67 | 9740 | 10200 (2001) | 1040 (2012) | 4090 | 1470 | 1850 | 2340 | 2440 | 3740 | 5480 | 5890 | 6810 | 8010 |
| 2026-04-14 20:45 | 11.66 | 9700 | 10200 (2001) | 1040 (2012) | 4090 | 1470 | 1850 | 2340 | 2440 | 3740 | 5480 | 5890 | 6810 | 8010 |
| 2026-04-14 19:45 | 11.61 | 9520 | 10200 (2001) | 1040 (2012) | 4090 | 1470 | 1850 | 2340 | 2440 | 3740 | 5480 | 5890 | 6810 | 8010 |
| 2026-04-14 17:45 | 11.56 | 9350 | 10200 (2001) | 1040 (2012) | 4090 | 1470 | 1850 | 2340 | 2440 | 3740 | 5480 | 5890 | 6810 | 8010 |
| 2026-04-14 15:45 | 11.50 | 9140 | 10200 (2001) | 1040 (2012) | 4090 | 1470 | 1850 | 2340 | 2440 | 3740 | 5480 | 5890 | 6810 | 8010 |
| 2026-04-14 14:45 | 11.51 | 9180 | 10200 (2001) | 1040 (2012) | 4090 | 1470 | 1850 | 2340 | 2440 | 3740 | 5480 | 5890 | 6810 | 8010 |
| 2026-04-14 12:45 | 11.42 | 8870 | 10200 (2001) | 1040 (2012) | 4090 | 1470 | 1850 | 2340 | 2440 | 3740 | 5480 | 5890 | 6810 | 8010 |
| 2026-04-14 11:45 | 11.38 | 8740 | 10200 (2001) | 1040 (2012) | 4090 | 1470 | 1850 | 2340 | 2440 | 3740 | 5480 | 5890 | 6810 | 8010 |
| 2026-04-14 09:45 | 11.32 | 8540 | 10200 (2001) | 1040 (2012) | 4090 | 1470 | 1850 | 2340 | 2440 | 3740 | 5480 | 5890 | 6810 | 8010 |
| 2026-04-14 08:45 | 11.31 | 8510 | 10200 (2001) | 1040 (2012) | 4090 | 1470 | 1850 | 2340 | 2440 | 3740 | 5480 | 5890 | 6810 | 8010 |
| 2026-04-14 06:45 | 11.18 | 8090 | 10200 (2001) | 1040 (2012) | 4090 | 1470 | 1850 | 2340 | 2440 | 3740 | 5480 | 5890 | 6810 | 8010 |
| 2026-04-14 05:45 | 11.15 | 8000 | 10200 (2001) | 1040 (2012) | 4090 | 1470 | 1850 | 2340 | 2440 | 3740 | 5480 | 5890 | 6810 | 8010 |
| 2026-04-14 03:45 | 11.08 | 7780 | 10200 (2001) | 1040 (2012) | 4090 | 1470 | 1850 | 2340 | 2440 | 3740 | 5480 | 5890 | 6810 | 8010 |
| 2026-04-14 02:45 | 11.08 | 7780 | 10200 (2001) | 1040 (2012) | 4090 | 1470 | 1850 | 2340 | 2440 | 3740 | 5480 | 5890 | 6810 | 8010 |
| 2026-04-14 00:45 | 10.99 | 7510 | 10200 (2001) | 1040 (2012) | 4090 | 1470 | 1850 | 2340 | 2440 | 3740 | 5480 | 5890 | 6810 | 8010 |
| 2026-04-13 23:45 | 10.95 | 7390 | 10200 (2001) | 1040 (2012) | 4090 | 1470 | 1850 | 2340 | 2440 | 3740 | 5480 | 5890 | 6810 | 8010 |
| 2026-04-13 22:45 | 10.88 | 7190 | 9670 (1951) | 1100 (2012) | 3990 | 1400 | 1910 | 2250 | 2430 | 3530 | 5420 | 5710 | 6750 | 7490 |
| 2026-04-13 21:45 | 10.85 | 7100 | 9670 (1951) | 1100 (2012) | 3990 | 1400 | 1910 | 2250 | 2430 | 3530 | 5420 | 5710 | 6750 | 7490 |
| 2026-04-13 20:45 | 10.82 | 7020 | 9670 (1951) | 1100 (2012) | 3990 | 1400 | 1910 | 2250 | 2430 | 3530 | 5420 | 5710 | 6750 | 7490 |
| 2026-04-13 19:45 | 10.78 | 6900 | 9670 (1951) | 1100 (2012) | 3990 | 1400 | 1910 | 2250 | 2430 | 3530 | 5420 | 5710 | 6750 | 7490 |
| 2026-04-13 18:45 | 10.75 | 6820 | 9670 (1951) | 1100 (2012) | 3990 | 1400 | 1910 | 2250 | 2430 | 3530 | 5420 | 5710 | 6750 | 7490 |
| 2026-04-13 17:45 | 10.68 | 6630 | 9670 (1951) | 1100 (2012) | 3990 | 1400 | 1910 | 2250 | 2430 | 3530 | 5420 | 5710 | 6750 | 7490 |
| 2026-04-13 16:45 | 10.66 | 6580 | 9670 (1951) | 1100 (2012) | 3990 | 1400 | 1910 | 2250 | 2430 | 3530 | 5420 | 5710 | 6750 | 7490 |
| 2026-04-13 14:45 | 10.61 | 6440 | 9670 (1951) | 1100 (2012) | 3990 | 1400 | 1910 | 2250 | 2430 | 3530 | 5420 | 5710 | 6750 | 7490 |
| 2026-04-13 13:45 | 10.56 | 6310 | 9670 (1951) | 1100 (2012) | 3990 | 1400 | 1910 | 2250 | 2430 | 3530 | 5420 | 5710 | 6750 | 7490 |
| 2026-04-13 12:45 | 10.56 | 6310 | 9670 (1951) | 1100 (2012) | 3990 | 1400 | 1910 | 2250 | 2430 | 3530 | 5420 | 5710 | 6750 | 7490 |
| 2026-04-13 10:45 | 10.47 | 6080 | 9670 (1951) | 1100 (2012) | 3990 | 1400 | 1910 | 2250 | 2430 | 3530 | 5420 | 5710 | 6750 | 7490 |
| 2026-04-13 09:45 | 10.45 | 6030 | 9670 (1951) | 1100 (2012) | 3990 | 1400 | 1910 | 2250 | 2430 | 3530 | 5420 | 5710 | 6750 | 7490 |
| 2026-04-13 08:45 | 10.43 | 5980 | 9670 (1951) | 1100 (2012) | 3990 | 1400 | 1910 | 2250 | 2430 | 3530 | 5420 | 5710 | 6750 | 7490 |
| 2026-04-13 07:45 | 10.41 | 5930 | 9670 (1951) | 1100 (2012) | 3990 | 1400 | 1910 | 2250 | 2430 | 3530 | 5420 | 5710 | 6750 | 7490 |
| 2026-04-13 04:45 | 10.34 | 5760 | 9670 (1951) | 1100 (2012) | 3990 | 1400 | 1910 | 2250 | 2430 | 3530 | 5420 | 5710 | 6750 | 7490 |
| 2026-04-13 03:45 | 10.27 | 5600 | 9670 (1951) | 1100 (2012) | 3990 | 1400 | 1910 | 2250 | 2430 | 3530 | 5420 | 5710 | 6750 | 7490 |
| 2026-04-13 02:45 | 10.24 | 5530 | 9670 (1951) | 1100 (2012) | 3990 | 1400 | 1910 | 2250 | 2430 | 3530 | 5420 | 5710 | 6750 | 7490 |
| 2026-04-13 01:45 | 10.25 | 5550 | 9670 (1951) | 1100 (2012) | 3990 | 1400 | 1910 | 2250 | 2430 | 3530 | 5420 | 5710 | 6750 | 7490 |
| 2026-04-13 00:45 | 10.22 | 5490 | 9670 (1951) | 1100 (2012) | 3990 | 1400 | 1910 | 2250 | 2430 | 3530 | 5420 | 5710 | 6750 | 7490 |
| 2026-04-12 23:45 | 10.18 | 5400 | 9670 (1951) | 1100 (2012) | 3990 | 1400 | 1910 | 2250 | 2430 | 3530 | 5420 | 5710 | 6750 | 7490 |
| 2026-04-12 22:45 | 10.14 | 5320 | 9670 (1951) | 1100 (2012) | 3900 | 1310 | 1790 | 2240 | 2480 | 3450 | 5290 | 5780 | 6890 | 7460 |
| 2026-04-12 21:45 | 10.13 | 5290 | 9670 (1951) | 1100 (2012) | 3900 | 1310 | 1790 | 2240 | 2480 | 3450 | 5290 | 5780 | 6890 | 7460 |
| 2026-04-12 20:45 | 10.10 | 5230 | 9670 (1951) | 1100 (2012) | 3900 | 1310 | 1790 | 2240 | 2480 | 3450 | 5290 | 5780 | 6890 | 7460 |
| 2026-04-12 19:45 | 10.10 | 5230 | 9670 (1951) | 1100 (2012) | 3900 | 1310 | 1790 | 2240 | 2480 | 3450 | 5290 | 5780 | 6890 | 7460 |
| 2026-04-12 18:45 | 10.06 | 5150 | 9670 (1951) | 1100 (2012) | 3900 | 1310 | 1790 | 2240 | 2480 | 3450 | 5290 | 5780 | 6890 | 7460 |
| 2026-04-12 17:45 | 10.02 | 5070 | 9670 (1951) | 1100 (2012) | 3900 | 1310 | 1790 | 2240 | 2480 | 3450 | 5290 | 5780 | 6890 | 7460 |
| 2026-04-12 16:45 | 10.02 | 5070 | 9670 (1951) | 1100 (2012) | 3900 | 1310 | 1790 | 2240 | 2480 | 3450 | 5290 | 5780 | 6890 | 7460 |
| 2026-04-12 15:45 | 9.98 | 4980 | 9670 (1951) | 1100 (2012) | 3900 | 1310 | 1790 | 2240 | 2480 | 3450 | 5290 | 5780 | 6890 | 7460 |
| 2026-04-12 14:45 | 9.93 | 4880 | 9670 (1951) | 1100 (2012) | 3900 | 1310 | 1790 | 2240 | 2480 | 3450 | 5290 | 5780 | 6890 | 7460 |
| 2026-04-12 13:45 | 9.94 | 4900 | 9670 (1951) | 1100 (2012) | 3900 | 1310 | 1790 | 2240 | 2480 | 3450 | 5290 | 5780 | 6890 | 7460 |
| 2026-04-12 12:45 | 9.91 | 4840 | 9670 (1951) | 1100 (2012) | 3900 | 1310 | 1790 | 2240 | 2480 | 3450 | 5290 | 5780 | 6890 | 7460 |
| 2026-04-12 11:45 | 9.87 | 4760 | 9670 (1951) | 1100 (2012) | 3900 | 1310 | 1790 | 2240 | 2480 | 3450 | 5290 | 5780 | 6890 | 7460 |
| 2026-04-12 10:45 | 9.83 | 4690 | 9670 (1951) | 1100 (2012) | 3900 | 1310 | 1790 | 2240 | 2480 | 3450 | 5290 | 5780 | 6890 | 7460 |
| 2026-04-12 09:45 | 9.80 | 4630 | 9670 (1951) | 1100 (2012) | 3900 | 1310 | 1790 | 2240 | 2480 | 3450 | 5290 | 5780 | 6890 | 7460 |
| 2026-04-12 08:45 | 9.78 | 4590 | 9670 (1951) | 1100 (2012) | 3900 | 1310 | 1790 | 2240 | 2480 | 3450 | 5290 | 5780 | 6890 | 7460 |
| 2026-04-12 07:45 | 9.76 | 4550 | 9670 (1951) | 1100 (2012) | 3900 | 1310 | 1790 | 2240 | 2480 | 3450 | 5290 | 5780 | 6890 | 7460 |
| 2026-04-12 06:45 | 9.73 | 4500 | 9670 (1951) | 1100 (2012) | 3900 | 1310 | 1790 | 2240 | 2480 | 3450 | 5290 | 5780 | 6890 | 7460 |
| 2026-04-12 05:45 | 9.71 | 4460 | 9670 (1951) | 1100 (2012) | 3900 | 1310 | 1790 | 2240 | 2480 | 3450 | 5290 | 5780 | 6890 | 7460 |
| 2026-04-12 04:45 | 9.68 | 4400 | 9670 (1951) | 1100 (2012) | 3900 | 1310 | 1790 | 2240 | 2480 | 3450 | 5290 | 5780 | 6890 | 7460 |
| 2026-04-12 03:45 | 9.64 | 4330 | 9670 (1951) | 1100 (2012) | 3900 | 1310 | 1790 | 2240 | 2480 | 3450 | 5290 | 5780 | 6890 | 7460 |
| 2026-04-12 02:45 | 9.65 | 4350 | 9670 (1951) | 1100 (2012) | 3900 | 1310 | 1790 | 2240 | 2480 | 3450 | 5290 | 5780 | 6890 | 7460 |
| 2026-04-12 01:45 | 9.64 | 4330 | 9670 (1951) | 1100 (2012) | 3900 | 1310 | 1790 | 2240 | 2480 | 3450 | 5290 | 5780 | 6890 | 7460 |
| 2026-04-12 00:45 | 9.62 | 4300 | 9670 (1951) | 1100 (2012) | 3900 | 1310 | 1790 | 2240 | 2480 | 3450 | 5290 | 5780 | 6890 | 7460 |
| 2026-04-11 23:45 | 9.61 | 4280 | 9670 (1951) | 1100 (2012) | 3900 | 1310 | 1790 | 2240 | 2480 | 3450 | 5290 | 5780 | 6890 | 7460 |
| 2026-04-11 22:45 | 9.58 | 4230 | 9670 (1951) | 1130 (2012) | 3810 | 1270 | 1660 | 2230 | 2490 | 3330 | 5150 | 5450 | 6530 | 7630 |
| 2026-04-11 21:45 | 9.55 | 4190 | 9670 (1951) | 1130 (2012) | 3810 | 1270 | 1660 | 2230 | 2490 | 3330 | 5150 | 5450 | 6530 | 7630 |
| 2026-04-11 20:45 | 9.55 | 4190 | 9670 (1951) | 1130 (2012) | 3810 | 1270 | 1660 | 2230 | 2490 | 3330 | 5150 | 5450 | 6530 | 7630 |
| 2026-04-11 19:45 | 9.55 | 4190 | 9670 (1951) | 1130 (2012) | 3810 | 1270 | 1660 | 2230 | 2490 | 3330 | 5150 | 5450 | 6530 | 7630 |
| 2026-04-11 18:45 | 9.54 | 4180 | 9670 (1951) | 1130 (2012) | 3810 | 1270 | 1660 | 2230 | 2490 | 3330 | 5150 | 5450 | 6530 | 7630 |
| 2026-04-11 17:45 | 9.52 | 4150 | 9670 (1951) | 1130 (2012) | 3810 | 1270 | 1660 | 2230 | 2490 | 3330 | 5150 | 5450 | 6530 | 7630 |
| 2026-04-11 16:45 | 9.46 | 4080 | 9670 (1951) | 1130 (2012) | 3810 | 1270 | 1660 | 2230 | 2490 | 3330 | 5150 | 5450 | 6530 | 7630 |
| 2026-04-11 15:45 | 9.49 | 4120 | 9670 (1951) | 1130 (2012) | 3810 | 1270 | 1660 | 2230 | 2490 | 3330 | 5150 | 5450 | 6530 | 7630 |
| 2026-04-11 14:45 | 9.50 | 4130 | 9670 (1951) | 1130 (2012) | 3810 | 1270 | 1660 | 2230 | 2490 | 3330 | 5150 | 5450 | 6530 | 7630 |
| 2026-04-11 13:45 | 9.49 | 4120 | 9670 (1951) | 1130 (2012) | 3810 | 1270 | 1660 | 2230 | 2490 | 3330 | 5150 | 5450 | 6530 | 7630 |
| 2026-04-11 10:45 | 9.45 | 4070 | 9670 (1951) | 1130 (2012) | 3810 | 1270 | 1660 | 2230 | 2490 | 3330 | 5150 | 5450 | 6530 | 7630 |
| 2026-04-11 08:45 | 9.44 | 4060 | 9670 (1951) | 1130 (2012) | 3810 | 1270 | 1660 | 2230 | 2490 | 3330 | 5150 | 5450 | 6530 | 7630 |
| 2026-04-11 07:45 | 9.40 | 4020 | 9670 (1951) | 1130 (2012) | 3810 | 1270 | 1660 | 2230 | 2490 | 3330 | 5150 | 5450 | 6530 | 7630 |
| 2026-04-11 06:45 | 9.42 | 4040 | 9670 (1951) | 1130 (2012) | 3810 | 1270 | 1660 | 2230 | 2490 | 3330 | 5150 | 5450 | 6530 | 7630 |
| 2026-04-11 05:45 | 9.43 | 4050 | 9670 (1951) | 1130 (2012) | 3810 | 1270 | 1660 | 2230 | 2490 | 3330 | 5150 | 5450 | 6530 | 7630 |
| 2026-04-11 04:45 | 9.40 | 4020 | 9670 (1951) | 1130 (2012) | 3810 | 1270 | 1660 | 2230 | 2490 | 3330 | 5150 | 5450 | 6530 | 7630 |
| 2026-04-11 03:45 | 9.37 | 3990 | 9670 (1951) | 1130 (2012) | 3810 | 1270 | 1660 | 2230 | 2490 | 3330 | 5150 | 5450 | 6530 | 7630 |
| 2026-04-11 02:45 | 9.36 | 3980 | 9670 (1951) | 1130 (2012) | 3810 | 1270 | 1660 | 2230 | 2490 | 3330 | 5150 | 5450 | 6530 | 7630 |
| 2026-04-11 01:45 | 9.37 | 3990 | 9670 (1951) | 1130 (2012) | 3810 | 1270 | 1660 | 2230 | 2490 | 3330 | 5150 | 5450 | 6530 | 7630 |
| 2026-04-11 00:45 | 9.36 | 3980 | 9670 (1951) | 1130 (2012) | 3810 | 1270 | 1660 | 2230 | 2490 | 3330 | 5150 | 5450 | 6530 | 7630 |
| 2026-04-10 23:45 | 9.33 | 3950 | 9670 (1951) | 1130 (2012) | 3810 | 1270 | 1660 | 2230 | 2490 | 3330 | 5150 | 5450 | 6530 | 7630 |
| 2026-04-10 22:45 | 9.36 | 3980 | 8870 (1986) | 1150 (1975) | 3670 | 1250 | 1460 | 2160 | 2470 | 3220 | 4610 | 5230 | 6590 | 7870 |
| 2026-04-10 21:45 | 9.32 | 3940 | 8870 (1986) | 1150 (1975) | 3670 | 1250 | 1460 | 2160 | 2470 | 3220 | 4610 | 5230 | 6590 | 7870 |
| 2026-04-10 20:45 | 9.32 | 3940 | 8870 (1986) | 1150 (1975) | 3670 | 1250 | 1460 | 2160 | 2470 | 3220 | 4610 | 5230 | 6590 | 7870 |
| 2026-04-10 19:45 | 9.26 | 3900 | 8870 (1986) | 1150 (1975) | 3670 | 1250 | 1460 | 2160 | 2470 | 3220 | 4610 | 5230 | 6590 | 7870 |
| 2026-04-10 18:45 | 9.27 | 3900 | 8870 (1986) | 1150 (1975) | 3670 | 1250 | 1460 | 2160 | 2470 | 3220 | 4610 | 5230 | 6590 | 7870 |
| 2026-04-10 17:45 | 9.31 | 3940 | 8870 (1986) | 1150 (1975) | 3670 | 1250 | 1460 | 2160 | 2470 | 3220 | 4610 | 5230 | 6590 | 7870 |
| 2026-04-10 16:45 | 9.27 | 3900 | 8870 (1986) | 1150 (1975) | 3670 | 1250 | 1460 | 2160 | 2470 | 3220 | 4610 | 5230 | 6590 | 7870 |
| 2026-04-10 15:45 | 9.27 | 3900 | 8870 (1986) | 1150 (1975) | 3670 | 1250 | 1460 | 2160 | 2470 | 3220 | 4610 | 5230 | 6590 | 7870 |
| 2026-04-10 14:45 | 9.27 | 3900 | 8870 (1986) | 1150 (1975) | 3670 | 1250 | 1460 | 2160 | 2470 | 3220 | 4610 | 5230 | 6590 | 7870 |
| 2026-04-10 11:45 | 9.24 | 8870 (1986) | 1150 (1975) | 3670 | 1250 | 1460 | 2160 | 2470 | 3220 | 4610 | 5230 | 6590 | 7870 | |
| 2026-04-10 09:45 | 9.21 | 8870 (1986) | 1150 (1975) | 3670 | 1250 | 1460 | 2160 | 2470 | 3220 | 4610 | 5230 | 6590 | 7870 | |
| 2026-04-10 08:45 | 9.20 | 8870 (1986) | 1150 (1975) | 3670 | 1250 | 1460 | 2160 | 2470 | 3220 | 4610 | 5230 | 6590 | 7870 | |
| 2026-04-10 07:45 | 9.22 | 8870 (1986) | 1150 (1975) | 3670 | 1250 | 1460 | 2160 | 2470 | 3220 | 4610 | 5230 | 6590 | 7870 | |
| 2026-04-10 06:45 | 9.20 | 8870 (1986) | 1150 (1975) | 3670 | 1250 | 1460 | 2160 | 2470 | 3220 | 4610 | 5230 | 6590 | 7870 | |
| 2026-04-10 05:45 | 9.17 | 8870 (1986) | 1150 (1975) | 3670 | 1250 | 1460 | 2160 | 2470 | 3220 | 4610 | 5230 | 6590 | 7870 | |
| 2026-04-10 04:45 | 9.19 | 8870 (1986) | 1150 (1975) | 3670 | 1250 | 1460 | 2160 | 2470 | 3220 | 4610 | 5230 | 6590 | 7870 | |
| 2026-04-10 03:45 | 9.15 | 8870 (1986) | 1150 (1975) | 3670 | 1250 | 1460 | 2160 | 2470 | 3220 | 4610 | 5230 | 6590 | 7870 | |
| 2026-04-10 02:45 | 9.16 | 8870 (1986) | 1150 (1975) | 3670 | 1250 | 1460 | 2160 | 2470 | 3220 | 4610 | 5230 | 6590 | 7870 | |
| 2026-04-10 01:45 | 9.16 | 8870 (1986) | 1150 (1975) | 3670 | 1250 | 1460 | 2160 | 2470 | 3220 | 4610 | 5230 | 6590 | 7870 | |
| 2026-04-10 00:45 | 9.14 | 8870 (1986) | 1150 (1975) | 3670 | 1250 | 1460 | 2160 | 2470 | 3220 | 4610 | 5230 | 6590 | 7870 | |
| 2026-04-09 23:45 | 9.14 | 8870 (1986) | 1150 (1975) | 3670 | 1250 | 1460 | 2160 | 2470 | 3220 | 4610 | 5230 | 6590 | 7870 | |
| 2026-04-09 22:45 | 9.13 | 9560 (1988) | 1150 (1975) | 3540 | 1250 | 1350 | 1980 | 2350 | 3160 | 4260 | 4620 | 6610 | 7550 | |
| 2026-04-09 21:45 | 9.13 | 9560 (1988) | 1150 (1975) | 3540 | 1250 | 1350 | 1980 | 2350 | 3160 | 4260 | 4620 | 6610 | 7550 | |
| 2026-04-09 20:45 | 9.13 | 9560 (1988) | 1150 (1975) | 3540 | 1250 | 1350 | 1980 | 2350 | 3160 | 4260 | 4620 | 6610 | 7550 | |
| 2026-04-09 19:45 | 9.11 | 9560 (1988) | 1150 (1975) | 3540 | 1250 | 1350 | 1980 | 2350 | 3160 | 4260 | 4620 | 6610 | 7550 | |
| 2026-04-09 17:45 | 9.10 | 9560 (1988) | 1150 (1975) | 3540 | 1250 | 1350 | 1980 | 2350 | 3160 | 4260 | 4620 | 6610 | 7550 | |
| 2026-04-09 15:45 | 9.12 | 9560 (1988) | 1150 (1975) | 3540 | 1250 | 1350 | 1980 | 2350 | 3160 | 4260 | 4620 | 6610 | 7550 | |
| 2026-04-09 14:45 | 9.08 | 9560 (1988) | 1150 (1975) | 3540 | 1250 | 1350 | 1980 | 2350 | 3160 | 4260 | 4620 | 6610 | 7550 | |
| 2026-04-09 13:45 | 9.10 | 9560 (1988) | 1150 (1975) | 3540 | 1250 | 1350 | 1980 | 2350 | 3160 | 4260 | 4620 | 6610 | 7550 | |
| 2026-04-09 10:45 | 9.09 | 9560 (1988) | 1150 (1975) | 3540 | 1250 | 1350 | 1980 | 2350 | 3160 | 4260 | 4620 | 6610 | 7550 | |
| 2026-04-09 09:45 | 9.11 | 9560 (1988) | 1150 (1975) | 3540 | 1250 | 1350 | 1980 | 2350 | 3160 | 4260 | 4620 | 6610 | 7550 | |
| 2026-04-09 08:45 | 9.09 | 9560 (1988) | 1150 (1975) | 3540 | 1250 | 1350 | 1980 | 2350 | 3160 | 4260 | 4620 | 6610 | 7550 | |
| 2026-04-09 07:45 | 9.06 | 9560 (1988) | 1150 (1975) | 3540 | 1250 | 1350 | 1980 | 2350 | 3160 | 4260 | 4620 | 6610 | 7550 | |
| 2026-04-09 06:45 | 9.09 | 9560 (1988) | 1150 (1975) | 3540 | 1250 | 1350 | 1980 | 2350 | 3160 | 4260 | 4620 | 6610 | 7550 | |
| 2026-04-09 05:45 | 9.06 | 9560 (1988) | 1150 (1975) | 3540 | 1250 | 1350 | 1980 | 2350 | 3160 | 4260 | 4620 | 6610 | 7550 | |
| 2026-04-09 04:45 | 9.07 | 9560 (1988) | 1150 (1975) | 3540 | 1250 | 1350 | 1980 | 2350 | 3160 | 4260 | 4620 | 6610 | 7550 | |
| 2026-04-09 03:45 | 9.05 | 9560 (1988) | 1150 (1975) | 3540 | 1250 | 1350 | 1980 | 2350 | 3160 | 4260 | 4620 | 6610 | 7550 | |
| 2026-04-09 02:45 | 9.07 | 9560 (1988) | 1150 (1975) | 3540 | 1250 | 1350 | 1980 | 2350 | 3160 | 4260 | 4620 | 6610 | 7550 | |
| 2026-04-09 01:45 | 9.06 | 9560 (1988) | 1150 (1975) | 3540 | 1250 | 1350 | 1980 | 2350 | 3160 | 4260 | 4620 | 6610 | 7550 | |
| 2026-04-08 23:45 | 9.07 | 9560 (1988) | 1150 (1975) | 3540 | 1250 | 1350 | 1980 | 2350 | 3160 | 4260 | 4620 | 6610 | 7550 | |
| 2026-04-08 22:45 | 9.04 | 9690 (1986) | 1150 (1975) | 3430 | 1220 | 1300 | 1970 | 2200 | 3100 | 3980 | 4230 | 6500 | 7600 | |
| 2026-04-08 21:45 | 9.06 | 9690 (1986) | 1150 (1975) | 3430 | 1220 | 1300 | 1970 | 2200 | 3100 | 3980 | 4230 | 6500 | 7600 | |
| 2026-04-08 20:45 | 9.07 | 9690 (1986) | 1150 (1975) | 3430 | 1220 | 1300 | 1970 | 2200 | 3100 | 3980 | 4230 | 6500 | 7600 | |
| 2026-04-08 19:45 | 9.07 | 9690 (1986) | 1150 (1975) | 3430 | 1220 | 1300 | 1970 | 2200 | 3100 | 3980 | 4230 | 6500 | 7600 | |
| 2026-04-08 18:45 | 9.07 | 9690 (1986) | 1150 (1975) | 3430 | 1220 | 1300 | 1970 | 2200 | 3100 | 3980 | 4230 | 6500 | 7600 | |
| 2026-04-08 17:45 | 9.05 | 9690 (1986) | 1150 (1975) | 3430 | 1220 | 1300 | 1970 | 2200 | 3100 | 3980 | 4230 | 6500 | 7600 | |
| 2026-04-08 16:45 | 9.04 | 9690 (1986) | 1150 (1975) | 3430 | 1220 | 1300 | 1970 | 2200 | 3100 | 3980 | 4230 | 6500 | 7600 | |
| 2026-04-08 14:45 | 9.05 | 9690 (1986) | 1150 (1975) | 3430 | 1220 | 1300 | 1970 | 2200 | 3100 | 3980 | 4230 | 6500 | 7600 | |
| 2026-04-08 12:45 | 9.05 | 9690 (1986) | 1150 (1975) | 3430 | 1220 | 1300 | 1970 | 2200 | 3100 | 3980 | 4230 | 6500 | 7600 | |
| 2026-04-08 11:45 | 9.08 | 9690 (1986) | 1150 (1975) | 3430 | 1220 | 1300 | 1970 | 2200 | 3100 | 3980 | 4230 | 6500 | 7600 | |
| 2026-04-08 10:45 | 9.07 | 9690 (1986) | 1150 (1975) | 3430 | 1220 | 1300 | 1970 | 2200 | 3100 | 3980 | 4230 | 6500 | 7600 | |
| 2026-04-08 09:45 | 9.03 | 9690 (1986) | 1150 (1975) | 3430 | 1220 | 1300 | 1970 | 2200 | 3100 | 3980 | 4230 | 6500 | 7600 | |
| 2026-04-08 08:45 | 9.05 | 9690 (1986) | 1150 (1975) | 3430 | 1220 | 1300 | 1970 | 2200 | 3100 | 3980 | 4230 | 6500 | 7600 | |
| 2026-04-08 07:45 | 9.06 | 9690 (1986) | 1150 (1975) | 3430 | 1220 | 1300 | 1970 | 2200 | 3100 | 3980 | 4230 | 6500 | 7600 | |
| 2026-04-08 06:45 | 9.04 | 9690 (1986) | 1150 (1975) | 3430 | 1220 | 1300 | 1970 | 2200 | 3100 | 3980 | 4230 | 6500 | 7600 | |
| 2026-04-08 05:45 | 9.04 | 9690 (1986) | 1150 (1975) | 3430 | 1220 | 1300 | 1970 | 2200 | 3100 | 3980 | 4230 | 6500 | 7600 | |
| 2026-04-08 04:45 | 9.07 | 9690 (1986) | 1150 (1975) | 3430 | 1220 | 1300 | 1970 | 2200 | 3100 | 3980 | 4230 | 6500 | 7600 | |
| 2026-04-08 03:45 | 9.04 | 9690 (1986) | 1150 (1975) | 3430 | 1220 | 1300 | 1970 | 2200 | 3100 | 3980 | 4230 | 6500 | 7600 | |
| 2026-04-08 02:45 | 9.05 | 9690 (1986) | 1150 (1975) | 3430 | 1220 | 1300 | 1970 | 2200 | 3100 | 3980 | 4230 | 6500 | 7600 | |
| 2026-04-08 01:45 | 9.00 | 9690 (1986) | 1150 (1975) | 3430 | 1220 | 1300 | 1970 | 2200 | 3100 | 3980 | 4230 | 6500 | 7600 | |
| 2026-04-08 00:45 | 9.04 | 9690 (1986) | 1150 (1975) | 3430 | 1220 | 1300 | 1970 | 2200 | 3100 | 3980 | 4230 | 6500 | 7600 | |
| 2026-04-07 23:45 | 9.06 | 9690 (1986) | 1150 (1975) | 3430 | 1220 | 1300 | 1970 | 2200 | 3100 | 3980 | 4230 | 6500 | 7600 | |
| 2026-04-07 22:45 | 9.05 | 9670 (1986) | 1070 (2014) | 3310 | 1170 | 1250 | 1830 | 1980 | 2900 | 4000 | 4270 | 6320 | 7720 | |
| 2026-04-07 21:45 | 9.06 | 9670 (1986) | 1070 (2014) | 3310 | 1170 | 1250 | 1830 | 1980 | 2900 | 4000 | 4270 | 6320 | 7720 | |
| 2026-04-07 20:45 | 9.07 | 9670 (1986) | 1070 (2014) | 3310 | 1170 | 1250 | 1830 | 1980 | 2900 | 4000 | 4270 | 6320 | 7720 | |
| 2026-04-07 19:45 | 9.05 | 9670 (1986) | 1070 (2014) | 3310 | 1170 | 1250 | 1830 | 1980 | 2900 | 4000 | 4270 | 6320 | 7720 | |
| 2026-04-07 18:45 | 9.03 | 9670 (1986) | 1070 (2014) | 3310 | 1170 | 1250 | 1830 | 1980 | 2900 | 4000 | 4270 | 6320 | 7720 | |
| 2026-04-07 17:45 | 9.04 | 9670 (1986) | 1070 (2014) | 3310 | 1170 | 1250 | 1830 | 1980 | 2900 | 4000 | 4270 | 6320 | 7720 | |
| 2026-04-07 16:45 | 9.05 | 9670 (1986) | 1070 (2014) | 3310 | 1170 | 1250 | 1830 | 1980 | 2900 | 4000 | 4270 | 6320 | 7720 | |
| 2026-04-07 15:45 | 9.02 | 9670 (1986) | 1070 (2014) | 3310 | 1170 | 1250 | 1830 | 1980 | 2900 | 4000 | 4270 | 6320 | 7720 | |
| 2026-04-07 14:45 | 9.02 | 9670 (1986) | 1070 (2014) | 3310 | 1170 | 1250 | 1830 | 1980 | 2900 | 4000 | 4270 | 6320 | 7720 | |
| 2026-04-07 13:45 | 9.04 | 9670 (1986) | 1070 (2014) | 3310 | 1170 | 1250 | 1830 | 1980 | 2900 | 4000 | 4270 | 6320 | 7720 | |
| 2026-04-07 12:45 | 9.04 | 9670 (1986) | 1070 (2014) | 3310 | 1170 | 1250 | 1830 | 1980 | 2900 | 4000 | 4270 | 6320 | 7720 | |
| 2026-04-07 10:45 | 9.04 | 9670 (1986) | 1070 (2014) | 3310 | 1170 | 1250 | 1830 | 1980 | 2900 | 4000 | 4270 | 6320 | 7720 | |
| 2026-04-07 09:45 | 9.07 | 9670 (1986) | 1070 (2014) | 3310 | 1170 | 1250 | 1830 | 1980 | 2900 | 4000 | 4270 | 6320 | 7720 | |
| 2026-04-07 08:45 | 9.06 | 9670 (1986) | 1070 (2014) | 3310 | 1170 | 1250 | 1830 | 1980 | 2900 | 4000 | 4270 | 6320 | 7720 | |
| 2026-04-07 07:45 | 9.02 | 9670 (1986) | 1070 (2014) | 3310 | 1170 | 1250 | 1830 | 1980 | 2900 | 4000 | 4270 | 6320 | 7720 | |
| 2026-04-07 06:45 | 9.03 | 9670 (1986) | 1070 (2014) | 3310 | 1170 | 1250 | 1830 | 1980 | 2900 | 4000 | 4270 | 6320 | 7720 | |
| 2026-04-07 05:45 | 9.01 | 9670 (1986) | 1070 (2014) | 3310 | 1170 | 1250 | 1830 | 1980 | 2900 | 4000 | 4270 | 6320 | 7720 | |
| 2026-04-07 04:45 | 9.03 | 9670 (1986) | 1070 (2014) | 3310 | 1170 | 1250 | 1830 | 1980 | 2900 | 4000 | 4270 | 6320 | 7720 | |
| 2026-04-07 03:45 | 9.03 | 9670 (1986) | 1070 (2014) | 3310 | 1170 | 1250 | 1830 | 1980 | 2900 | 4000 | 4270 | 6320 | 7720 | |
| 2026-04-07 02:45 | 9.04 | 9670 (1986) | 1070 (2014) | 3310 | 1170 | 1250 | 1830 | 1980 | 2900 | 4000 | 4270 | 6320 | 7720 | |
| 2026-04-07 01:45 | 9.03 | 9670 (1986) | 1070 (2014) | 3310 | 1170 | 1250 | 1830 | 1980 | 2900 | 4000 | 4270 | 6320 | 7720 | |
| 2026-04-07 00:45 | 9.01 | 9670 (1986) | 1070 (2014) | 3310 | 1170 | 1250 | 1830 | 1980 | 2900 | 4000 | 4270 | 6320 | 7720 | |
| 2026-04-06 23:45 | 9.03 | 9670 (1986) | 1070 (2014) | 3310 | 1170 | 1250 | 1830 | 1980 | 2900 | 4000 | 4270 | 6320 | 7720 | |
| 2026-04-06 22:45 | 9.02 | 9330 (1986) | 1010 (2014) | 3190 | 1120 | 1250 | 1500 | 1840 | 2670 | 3960 | 4310 | 6170 | 7580 | |
| 2026-04-06 21:45 | 9.02 | 9330 (1986) | 1010 (2014) | 3190 | 1120 | 1250 | 1500 | 1840 | 2670 | 3960 | 4310 | 6170 | 7580 | |
| 2026-04-06 20:45 | 9.02 | 9330 (1986) | 1010 (2014) | 3190 | 1120 | 1250 | 1500 | 1840 | 2670 | 3960 | 4310 | 6170 | 7580 | |
| 2026-04-06 19:45 | 9.00 | 9330 (1986) | 1010 (2014) | 3190 | 1120 | 1250 | 1500 | 1840 | 2670 | 3960 | 4310 | 6170 | 7580 | |
| 2026-04-06 18:45 | 9.00 | 9330 (1986) | 1010 (2014) | 3190 | 1120 | 1250 | 1500 | 1840 | 2670 | 3960 | 4310 | 6170 | 7580 | |
| 2026-04-06 17:45 | 9.00 | 9330 (1986) | 1010 (2014) | 3190 | 1120 | 1250 | 1500 | 1840 | 2670 | 3960 | 4310 | 6170 | 7580 | |
| 2026-04-06 16:45 | 9.00 | 9330 (1986) | 1010 (2014) | 3190 | 1120 | 1250 | 1500 | 1840 | 2670 | 3960 | 4310 | 6170 | 7580 | |
| 2026-04-06 15:45 | 8.98 | 9330 (1986) | 1010 (2014) | 3190 | 1120 | 1250 | 1500 | 1840 | 2670 | 3960 | 4310 | 6170 | 7580 | |
| 2026-04-06 14:45 | 9.00 | 9330 (1986) | 1010 (2014) | 3190 | 1120 | 1250 | 1500 | 1840 | 2670 | 3960 | 4310 | 6170 | 7580 | |
| 2026-04-06 12:45 | 8.95 | 9330 (1986) | 1010 (2014) | 3190 | 1120 | 1250 | 1500 | 1840 | 2670 | 3960 | 4310 | 6170 | 7580 | |
| 2026-04-06 10:45 | 8.92 | 9330 (1986) | 1010 (2014) | 3190 | 1120 | 1250 | 1500 | 1840 | 2670 | 3960 | 4310 | 6170 | 7580 | |
| 2026-04-06 09:45 | 8.94 | 9330 (1986) | 1010 (2014) | 3190 | 1120 | 1250 | 1500 | 1840 | 2670 | 3960 | 4310 | 6170 | 7580 | |
| 2026-04-06 08:45 | 8.92 | 9330 (1986) | 1010 (2014) | 3190 | 1120 | 1250 | 1500 | 1840 | 2670 | 3960 | 4310 | 6170 | 7580 | |
| 2026-04-06 07:45 | 8.89 | 9330 (1986) | 1010 (2014) | 3190 | 1120 | 1250 | 1500 | 1840 | 2670 | 3960 | 4310 | 6170 | 7580 | |
| 2026-04-06 06:45 | 8.91 | 9330 (1986) | 1010 (2014) | 3190 | 1120 | 1250 | 1500 | 1840 | 2670 | 3960 | 4310 | 6170 | 7580 | |
| 2026-04-06 05:45 | 8.89 | 9330 (1986) | 1010 (2014) | 3190 | 1120 | 1250 | 1500 | 1840 | 2670 | 3960 | 4310 | 6170 | 7580 | |
| 2026-04-06 04:45 | 8.88 | 9330 (1986) | 1010 (2014) | 3190 | 1120 | 1250 | 1500 | 1840 | 2670 | 3960 | 4310 | 6170 | 7580 | |
| 2026-04-06 03:45 | 8.88 | 9330 (1986) | 1010 (2014) | 3190 | 1120 | 1250 | 1500 | 1840 | 2670 | 3960 | 4310 | 6170 | 7580 | |
| 2026-04-06 02:45 | 8.88 | 9330 (1986) | 1010 (2014) | 3190 | 1120 | 1250 | 1500 | 1840 | 2670 | 3960 | 4310 | 6170 | 7580 | |
| 2026-04-06 01:45 | 8.87 | 9330 (1986) | 1010 (2014) | 3190 | 1120 | 1250 | 1500 | 1840 | 2670 | 3960 | 4310 | 6170 | 7580 | |
| 2026-04-06 00:45 | 8.83 | 9330 (1986) | 1010 (2014) | 3190 | 1120 | 1250 | 1500 | 1840 | 2670 | 3960 | 4310 | 6170 | 7580 | |
| 2026-04-05 23:45 | 8.82 | 9330 (1986) | 1010 (2014) | 3190 | 1120 | 1250 | 1500 | 1840 | 2670 | 3960 | 4310 | 6170 | 7580 | |
| 2026-04-05 22:45 | 8.81 | 8750 (1986) | 956 (2014) | 3080 | 1060 | 1200 | 1410 | 1700 | 2540 | 3890 | 4400 | 6080 | 7830 | |
| 2026-04-05 21:45 | 8.82 | 8750 (1986) | 956 (2014) | 3080 | 1060 | 1200 | 1410 | 1700 | 2540 | 3890 | 4400 | 6080 | 7830 | |
| 2026-04-05 20:45 | 8.80 | 8750 (1986) | 956 (2014) | 3080 | 1060 | 1200 | 1410 | 1700 | 2540 | 3890 | 4400 | 6080 | 7830 | |
| 2026-04-05 19:45 | 8.77 | 8750 (1986) | 956 (2014) | 3080 | 1060 | 1200 | 1410 | 1700 | 2540 | 3890 | 4400 | 6080 | 7830 | |
| 2026-04-05 18:45 | 8.78 | 8750 (1986) | 956 (2014) | 3080 | 1060 | 1200 | 1410 | 1700 | 2540 | 3890 | 4400 | 6080 | 7830 | |
| 2026-04-05 17:45 | 8.75 | 8750 (1986) | 956 (2014) | 3080 | 1060 | 1200 | 1410 | 1700 | 2540 | 3890 | 4400 | 6080 | 7830 | |
| 2026-04-05 16:45 | 8.72 | 8750 (1986) | 956 (2014) | 3080 | 1060 | 1200 | 1410 | 1700 | 2540 | 3890 | 4400 | 6080 | 7830 | |
| 2026-04-05 14:45 | 8.71 | 8750 (1986) | 956 (2014) | 3080 | 1060 | 1200 | 1410 | 1700 | 2540 | 3890 | 4400 | 6080 | 7830 | |
| 2026-04-05 12:45 | 8.70 | 8750 (1986) | 956 (2014) | 3080 | 1060 | 1200 | 1410 | 1700 | 2540 | 3890 | 4400 | 6080 | 7830 | |
| 2026-04-05 11:45 | 8.67 | 8750 (1986) | 956 (2014) | 3080 | 1060 | 1200 | 1410 | 1700 | 2540 | 3890 | 4400 | 6080 | 7830 | |
| 2026-04-05 10:45 | 8.66 | 8750 (1986) | 956 (2014) | 3080 | 1060 | 1200 | 1410 | 1700 | 2540 | 3890 | 4400 | 6080 | 7830 | |
| 2026-04-05 09:45 | 8.63 | 8750 (1986) | 956 (2014) | 3080 | 1060 | 1200 | 1410 | 1700 | 2540 | 3890 | 4400 | 6080 | 7830 | |
| 2026-04-05 08:45 | 8.63 | 8750 (1986) | 956 (2014) | 3080 | 1060 | 1200 | 1410 | 1700 | 2540 | 3890 | 4400 | 6080 | 7830 | |
| 2026-04-05 07:45 | 8.64 | 8750 (1986) | 956 (2014) | 3080 | 1060 | 1200 | 1410 | 1700 | 2540 | 3890 | 4400 | 6080 | 7830 | |
| 2026-04-05 06:45 | 8.58 | 8750 (1986) | 956 (2014) | 3080 | 1060 | 1200 | 1410 | 1700 | 2540 | 3890 | 4400 | 6080 | 7830 | |
| 2026-04-05 05:45 | 8.59 | 8750 (1986) | 956 (2014) | 3080 | 1060 | 1200 | 1410 | 1700 | 2540 | 3890 | 4400 | 6080 | 7830 | |
| 2026-04-05 04:45 | 8.59 | 8750 (1986) | 956 (2014) | 3080 | 1060 | 1200 | 1410 | 1700 | 2540 | 3890 | 4400 | 6080 | 7830 | |
| 2026-04-05 03:45 | 8.55 | 8750 (1986) | 956 (2014) | 3080 | 1060 | 1200 | 1410 | 1700 | 2540 | 3890 | 4400 | 6080 | 7830 | |
| 2026-04-05 02:45 | 8.55 | 8750 (1986) | 956 (2014) | 3080 | 1060 | 1200 | 1410 | 1700 | 2540 | 3890 | 4400 | 6080 | 7830 | |
| 2026-04-05 01:45 | 8.51 | 8750 (1986) | 956 (2014) | 3080 | 1060 | 1200 | 1410 | 1700 | 2540 | 3890 | 4400 | 6080 | 7830 | |
| 2026-04-05 00:45 | 8.50 | 8750 (1986) | 956 (2014) | 3080 | 1060 | 1200 | 1410 | 1700 | 2540 | 3890 | 4400 | 6080 | 7830 | |
| 2026-04-04 23:45 | 8.49 | 8750 (1986) | 956 (2014) | 3080 | 1060 | 1200 | 1410 | 1700 | 2540 | 3890 | 4400 | 6080 | 7830 |
A total of 666 rows are displayed for years 1938 through 2025.